Time,TemperatureF,DewpointF,PressureIn,WindDirection,WindDirectionDegrees,WindSpeedMPH,WindSpeedGustMPH,Humidity,HourlyPrecipIn,Conditions,Clouds,dailyrainin,SoftwareType,DateUTC
2013-02-04 00:01:00,24.1,20.8,30.27,NW,304,0.0,9.0,87,0.00,,,0.00,Wunderground v.1.15,2013-02-04 05:01:00,
2013-02-04 00:02:00,24.0,20.7,30.27,NW,304,0.0,9.0,87,0.00,,,0.00,Wunderground v.1.15,2013-02-04 05:02:00,
2013-02-04 00:03:00,23.9,20.9,30.27,NW,304,0.0,9.0,88,0.00,,,0.00,Wunderground v.1.15,2013-02-04 05:03:00,
2013-02-04 00:05:00,24.0,21.0,30.27,NW,304,0.0,9.0,88,0.00,,,0.00,Wunderground v.1.15,2013-02-04 05:05:00,
2013-02-04 00:09:00,24.0,21.0,30.27,NW,304,0.0,9.0,88,0.00,,,0.00,Wunderground v.1.15,2013-02-04 05:09:00,
2013-02-04 00:12:00,24.0,21.0,30.27,NW,304,0.0,9.0,88,0.00,,,0.00,Wunderground v.1.15,2013-02-04 05:12:00,
2013-02-04 00:14:00,24.0,21.0,30.27,NW,304,0.0,9.0,88,0.00,,,0.00,Wunderground v.1.15,2013-02-04 05:14:00,
2013-02-04 00:17:00,24.1,21.1,30.26,NW,304,0.0,9.0,88,0.00,,,0.00,Wunderground v.1.15,2013-02-04 05:17:00,
2013-02-04 00:18:00,24.1,21.1,30.26,NW,304,0.0,9.0,88,0.00,,,0.00,Wunderground v.1.15,2013-02-04 05:18:00,
2013-02-04 00:20:00,24.1,21.1,30.26,NW,304,0.0,9.0,88,0.00,,,0.00,Wunderground v.1.15,2013-02-04 05:20:00,
2013-02-04 00:21:00,24.0,21.0,30.26,NW,304,0.0,9.0,88,0.00,,,0.00,Wunderground v.1.15,2013-02-04 05:21:00,
2013-02-04 00:23:00,24.1,21.1,30.26,NW,304,0.0,9.0,88,0.00,,,0.00,Wunderground v.1.15,2013-02-04 05:23:00,
2013-02-04 00:25:00,24.1,21.1,30.26,NW,304,0.0,9.0,88,0.00,,,0.00,Wunderground v.1.15,2013-02-04 05:25:00,
2013-02-04 00:27:00,24.1,21.1,30.26,NW,304,0.0,9.0,88,0.00,,,0.00,Wunderground v.1.15,2013-02-04 05:27:00,
2013-02-04 00:28:00,24.1,21.1,30.26,NW,304,0.0,9.0,88,0.00,,,0.00,Wunderground v.1.15,2013-02-04 05:28:00,
2013-02-04 00:31:00,24.1,21.1,30.26,NW,304,0.0,9.0,88,0.00,,,0.00,Wunderground v.1.15,2013-02-04 05:31:00,
2013-02-04 00:33:00,24.1,21.1,30.26,NW,304,0.0,9.0,88,0.00,,,0.00,Wunderground v.1.15,2013-02-04 05:33:00,
2013-02-04 00:34:00,24.1,21.1,30.26,NW,304,0.0,9.0,88,0.00,,,0.00,Wunderground v.1.15,2013-02-04 05:34:00,
2013-02-04 00:36:00,24.0,21.0,30.26,NW,304,0.0,9.0,88,0.00,,,0.00,Wunderground v.1.15,2013-02-04 05:36:00,
2013-02-04 00:37:00,24.0,21.0,30.26,NW,304,0.0,9.0,88,0.00,,,0.00,Wunderground v.1.15,2013-02-04 05:37:00,
2013-02-04 00:41:00,23.9,20.9,30.26,NW,304,0.0,9.0,88,0.00,,,0.00,Wunderground v.1.15,2013-02-04 05:41:00,
2013-02-04 00:42:00,23.9,20.9,30.26,NW,304,0.0,9.0,88,0.00,,,0.00,Wunderground v.1.15,2013-02-04 05:42:00,
2013-02-04 00:44:00,23.8,20.8,30.26,NW,304,0.0,9.0,88,0.00,,,0.00,Wunderground v.1.15,2013-02-04 05:44:00,
2013-02-04 00:48:00,23.6,20.6,30.26,NW,304,0.0,9.0,88,0.00,,,0.00,Wunderground v.1.15,2013-02-04 05:48:00,
2013-02-04 00:49:00,23.5,20.5,30.26,NW,304,0.0,9.0,88,0.00,,,0.00,Wunderground v.1.15,2013-02-04 05:49:00,
2013-02-04 00:51:00,23.5,20.5,30.26,NW,304,0.0,9.0,88,0.00,,,0.00,Wunderground v.1.15,2013-02-04 05:51:00,
2013-02-04 00:54:00,23.4,20.6,30.26,NW,304,0.0,9.0,89,0.00,,,0.00,Wunderground v.1.15,2013-02-04 05:54:00,
2013-02-04 00:56:00,23.2,20.2,30.26,NW,304,0.0,9.0,88,0.00,,,0.00,Wunderground v.1.15,2013-02-04 05:56:00,
2013-02-04 00:58:00,23.0,20.2,30.26,NW,304,0.0,9.0,89,0.00,,,0.00,Wunderground v.1.15,2013-02-04 05:58:00,
2013-02-04 01:02:00,22.9,20.1,30.26,NW,304,0.0,9.0,89,0.00,,,0.00,Wunderground v.1.15,2013-02-04 06:02:00,
2013-02-04 01:04:00,23.0,20.5,30.26,NW,304,0.0,9.0,90,0.00,,,0.00,Wunderground v.1.15,2013-02-04 06:04:00,
2013-02-04 01:05:00,23.1,20.6,30.26,NW,304,0.0,9.0,90,0.00,,,0.00,Wunderground v.1.15,2013-02-04 06:05:00,
2013-02-04 01:08:00,23.3,20.8,30.26,NW,304,0.0,9.0,90,0.00,,,0.00,Wunderground v.1.15,2013-02-04 06:08:00,
2013-02-04 01:10:00,23.4,20.9,30.26,NW,304,0.0,9.0,90,0.00,,,0.00,Wunderground v.1.15,2013-02-04 06:10:00,
2013-02-04 01:11:00,23.4,20.9,30.26,NW,304,0.0,9.0,90,0.00,,,0.00,Wunderground v.1.15,2013-02-04 06:11:00,
2013-02-04 01:12:00,23.4,20.9,30.26,NW,304,0.0,9.0,90,0.00,,,0.00,Wunderground v.1.15,2013-02-04 06:12:00,
2013-02-04 01:15:00,23.5,21.0,30.26,NW,304,0.0,9.0,90,0.00,,,0.00,Wunderground v.1.15,2013-02-04 06:15:00,
2013-02-04 01:17:00,23.5,21.0,30.26,NW,304,0.0,9.0,90,0.00,,,0.00,Wunderground v.1.15,2013-02-04 06:17:00,
2013-02-04 01:18:00,23.5,20.7,30.26,NW,304,0.0,9.0,89,0.00,,,0.00,Wunderground v.1.15,2013-02-04 06:18:00,
2013-02-04 01:23:00,23.5,20.7,30.26,NW,304,0.0,9.0,89,0.00,,,0.00,Wunderground v.1.15,2013-02-04 06:23:00,
2013-02-04 01:24:00,23.5,20.7,30.26,NW,304,0.0,9.0,89,0.00,,,0.00,Wunderground v.1.15,2013-02-04 06:24:00,
2013-02-04 01:26:00,23.4,20.6,30.25,NW,304,0.0,9.0,89,0.00,,,0.00,Wunderground v.1.15,2013-02-04 06:26:00,
2013-02-04 01:27:00,23.4,20.6,30.25,NW,304,0.0,9.0,89,0.00,,,0.00,Wunderground v.1.15,2013-02-04 06:27:00,
2013-02-04 01:28:00,23.4,20.6,30.25,NW,304,0.0,9.0,89,0.00,,,0.00,Wunderground v.1.15,2013-02-04 06:28:00,
2013-02-04 01:32:00,23.4,20.6,30.25,NW,304,0.0,9.0,89,0.00,,,0.00,Wunderground v.1.15,2013-02-04 06:32:00,
2013-02-04 01:33:00,23.3,20.5,30.25,NW,304,0.0,9.0,89,0.00,,,0.00,Wunderground v.1.15,2013-02-04 06:33:00,
2013-02-04 01:36:00,23.4,20.9,30.25,NW,304,0.0,9.0,90,0.00,,,0.00,Wunderground v.1.15,2013-02-04 06:36:00,
2013-02-04 01:38:00,23.4,20.6,30.25,NW,304,0.0,9.0,89,0.00,,,0.00,Wunderground v.1.15,2013-02-04 06:38:00,
2013-02-04 01:42:00,23.4,20.6,30.24,NW,304,0.0,9.0,89,0.00,,,0.00,Wunderground v.1.15,2013-02-04 06:42:00,
2013-02-04 01:43:00,23.4,20.6,30.24,NW,304,0.0,9.0,89,0.00,,,0.00,Wunderground v.1.15,2013-02-04 06:43:00,
2013-02-04 01:45:00,23.4,20.6,30.24,NW,304,0.0,9.0,89,0.00,,,0.00,Wunderground v.1.15,2013-02-04 06:45:00,
2013-02-04 01:47:00,23.4,20.6,30.24,NW,304,0.0,9.0,89,0.00,,,0.00,Wunderground v.1.15,2013-02-04 06:47:00,
2013-02-04 01:49:00,23.4,20.6,30.24,NW,304,0.0,9.0,89,0.00,,,0.00,Wunderground v.1.15,2013-02-04 06:49:00,
2013-02-04 01:52:00,23.3,20.5,30.24,NW,304,0.0,9.0,89,0.00,,,0.00,Wunderground v.1.15,2013-02-04 06:52:00,
2013-02-04 01:54:00,23.3,20.5,30.23,NW,304,0.0,9.0,89,0.00,,,0.00,Wunderground v.1.15,2013-02-04 06:54:00,
2013-02-04 01:55:00,23.2,20.4,30.23,NW,304,0.0,9.0,89,0.00,,,0.00,Wunderground v.1.15,2013-02-04 06:55:00,
2013-02-04 01:57:00,23.1,20.3,30.23,NW,304,0.0,9.0,89,0.00,,,0.00,Wunderground v.1.15,2013-02-04 06:57:00,
2013-02-04 01:58:00,23.0,20.2,30.23,NW,304,0.0,9.0,89,0.00,,,0.00,Wunderground v.1.15,2013-02-04 06:58:00,
2013-02-04 02:01:00,22.8,20.0,30.23,NW,304,0.0,9.0,89,0.00,,,0.00,Wunderground v.1.15,2013-02-04 07:01:00,
2013-02-04 02:03:00,22.5,19.7,30.23,NW,304,0.0,9.0,89,0.00,,,0.00,Wunderground v.1.15,2013-02-04 07:03:00,
2013-02-04 02:04:00,22.5,19.7,30.23,NW,304,0.0,9.0,89,0.00,,,0.00,Wunderground v.1.15,2013-02-04 07:04:00,
2013-02-04 02:06:00,22.5,20.0,30.23,NW,304,0.0,9.0,90,0.00,,,0.00,Wunderground v.1.15,2013-02-04 07:06:00,
2013-02-04 02:07:00,22.5,20.0,30.23,NW,304,0.0,9.0,90,0.00,,,0.00,Wunderground v.1.15,2013-02-04 07:07:00,
2013-02-04 02:10:00,22.6,20.1,30.23,NW,304,0.0,9.0,90,0.00,,,0.00,Wunderground v.1.15,2013-02-04 07:10:00,
2013-02-04 02:13:00,22.6,20.1,30.23,NW,304,0.0,9.0,90,0.00,,,0.00,Wunderground v.1.15,2013-02-04 07:13:00,
2013-02-04 02:15:00,22.6,20.1,30.23,NW,304,0.0,9.0,90,0.00,,,0.00,Wunderground v.1.15,2013-02-04 07:15:00,
2013-02-04 02:18:00,22.7,20.2,30.22,NW,304,0.0,9.0,90,0.00,,,0.00,Wunderground v.1.15,2013-02-04 07:18:00,
2013-02-04 02:22:00,22.7,20.2,30.23,NW,304,0.0,9.0,90,0.00,,,0.00,Wunderground v.1.15,2013-02-04 07:22:00,
2013-02-04 02:23:00,22.7,20.2,30.23,NW,304,0.0,9.0,90,0.00,,,0.00,Wunderground v.1.15,2013-02-04 07:23:00,
2013-02-04 02:24:00,22.7,20.5,30.23,NW,304,0.0,9.0,91,0.00,,,0.00,Wunderground v.1.15,2013-02-04 07:24:00,
2013-02-04 02:28:00,22.0,19.3,30.24,NW,304,0.0,9.0,89,0.00,,,0.00,Wunderground v.1.15,2013-02-04 07:28:00,
2013-02-04 02:30:00,21.8,19.1,30.24,NW,304,0.0,9.0,89,0.00,,,0.00,Wunderground v.1.15,2013-02-04 07:30:00,
2013-02-04 02:31:00,21.8,19.3,30.24,NW,304,0.0,9.0,90,0.00,,,0.00,Wunderground v.1.15,2013-02-04 07:31:00,
2013-02-04 02:32:00,21.8,19.3,30.24,NW,304,0.0,9.0,90,0.00,,,0.00,Wunderground v.1.15,2013-02-04 07:32:00,
2013-02-04 02:33:00,21.7,19.2,30.24,NW,304,0.0,9.0,90,0.00,,,0.00,Wunderground v.1.15,2013-02-04 07:33:00,
2013-02-04 02:36:00,21.5,19.3,30.24,NW,304,0.0,9.0,91,0.00,,,0.00,Wunderground v.1.15,2013-02-04 07:36:00,
2013-02-04 02:37:00,21.5,19.3,30.24,NW,304,0.0,9.0,91,0.00,,,0.00,Wunderground v.1.15,2013-02-04 07:37:00,
2013-02-04 02:40:00,21.4,19.2,30.24,NW,304,0.0,9.0,91,0.00,,,0.00,Wunderground v.1.15,2013-02-04 07:40:00,
2013-02-04 02:41:00,21.4,19.2,30.24,NW,304,0.0,9.0,91,0.00,,,0.00,Wunderground v.1.15,2013-02-04 07:41:00,
2013-02-04 02:44:00,21.4,19.2,30.24,NW,304,0.0,9.0,91,0.00,,,0.00,Wunderground v.1.15,2013-02-04 07:44:00,
2013-02-04 02:46:00,21.3,19.1,30.24,NW,304,0.0,9.0,91,0.00,,,0.00,Wunderground v.1.15,2013-02-04 07:46:00,
2013-02-04 02:51:00,21.2,19.2,30.25,NW,304,0.0,9.0,92,0.00,,,0.00,Wunderground v.1.15,2013-02-04 07:51:00,
2013-02-04 02:53:00,21.0,18.8,30.25,NW,304,0.0,9.0,91,0.00,,,0.00,Wunderground v.1.15,2013-02-04 07:53:00,
2013-02-04 02:54:00,20.9,18.7,30.25,NW,304,0.0,9.0,91,0.00,,,0.00,Wunderground v.1.15,2013-02-04 07:54:00,
2013-02-04 02:56:00,20.8,18.6,30.25,NW,304,0.0,9.0,91,0.00,,,0.00,Wunderground v.1.15,2013-02-04 07:56:00,
2013-02-04 02:57:00,20.8,18.6,30.25,NW,304,0.0,9.0,91,0.00,,,0.00,Wunderground v.1.15,2013-02-04 07:57:00,
2013-02-04 02:59:00,20.7,18.5,30.25,NW,304,0.0,9.0,91,0.00,,,0.00,Wunderground v.1.15,2013-02-04 07:59:00,
2013-02-04 03:01:00,20.5,18.3,30.25,NW,304,0.0,9.0,91,0.00,,,0.00,Wunderground v.1.15,2013-02-04 08:01:00,
2013-02-04 03:05:00,20.4,18.4,30.25,NW,304,0.0,9.0,92,0.00,,,0.00,Wunderground v.1.15,2013-02-04 08:05:00,
2013-02-04 03:07:00,20.4,18.4,30.25,NW,304,0.0,9.0,92,0.00,,,0.00,Wunderground v.1.15,2013-02-04 08:07:00,
2013-02-04 03:08:00,20.5,18.5,30.25,NW,304,0.0,9.0,92,0.00,,,0.00,Wunderground v.1.15,2013-02-04 08:08:00,
2013-02-04 03:11:00,20.4,18.4,30.26,NW,304,0.0,9.0,92,0.00,,,0.00,Wunderground v.1.15,2013-02-04 08:11:00,
2013-02-04 03:12:00,20.3,18.3,30.25,NW,304,0.0,9.0,92,0.00,,,0.00,Wunderground v.1.15,2013-02-04 08:12:00,
2013-02-04 03:16:00,20.0,18.1,30.26,NW,304,0.0,9.0,92,0.00,,,0.00,Wunderground v.1.15,2013-02-04 08:16:00,
2013-02-04 03:17:00,20.0,18.1,30.26,NW,304,0.0,9.0,92,0.00,,,0.00,Wunderground v.1.15,2013-02-04 08:17:00,
2013-02-04 03:18:00,20.0,18.1,30.26,NW,304,0.0,9.0,92,0.00,,,0.00,Wunderground v.1.15,2013-02-04 08:18:00,
2013-02-04 03:21:00,20.3,18.6,30.26,NW,304,0.0,9.0,93,0.00,,,0.00,Wunderground v.1.15,2013-02-04 08:21:00,
2013-02-04 03:23:00,20.6,18.9,30.25,NW,304,0.0,9.0,93,0.00,,,0.00,Wunderground v.1.15,2013-02-04 08:23:00,
2013-02-04 03:24:00,20.6,18.9,30.25,NW,304,0.0,9.0,93,0.00,,,0.00,Wunderground v.1.15,2013-02-04 08:24:00,
2013-02-04 03:27:00,20.9,19.2,30.25,NW,304,0.0,9.0,93,0.00,,,0.00,Wunderground v.1.15,2013-02-04 08:27:00,
2013-02-04 03:29:00,21.0,19.3,30.25,NW,304,0.0,9.0,93,0.00,,,0.00,Wunderground v.1.15,2013-02-04 08:29:00,
2013-02-04 03:34:00,21.3,19.3,30.25,NW,304,0.0,9.0,92,0.00,,,0.00,Wunderground v.1.15,2013-02-04 08:34:00,
2013-02-04 03:35:00,21.3,19.3,30.25,NW,304,0.0,9.0,92,0.00,,,0.00,Wunderground v.1.15,2013-02-04 08:35:00,
2013-02-04 03:36:00,21.4,19.4,30.25,NW,304,0.0,9.0,92,0.00,,,0.00,Wunderground v.1.15,2013-02-04 08:36:00,
2013-02-04 03:37:00,21.4,19.4,30.25,NW,304,0.0,9.0,92,0.00,,,0.00,Wunderground v.1.15,2013-02-04 08:37:00,
2013-02-04 03:41:00,21.5,19.3,30.24,NW,304,0.0,9.0,91,0.00,,,0.00,Wunderground v.1.15,2013-02-04 08:41:00,
2013-02-04 03:42:00,21.6,19.4,30.24,NW,304,0.0,9.0,91,0.00,,,0.00,Wunderground v.1.15,2013-02-04 08:42:00,
2013-02-04 03:44:00,21.6,19.4,30.24,NW,304,0.0,9.0,91,0.00,,,0.00,Wunderground v.1.15,2013-02-04 08:44:00,
2013-02-04 03:46:00,21.7,19.5,30.24,NW,304,0.0,9.0,91,0.00,,,0.00,Wunderground v.1.15,2013-02-04 08:46:00,
2013-02-04 03:47:00,21.7,19.5,30.24,NW,304,0.0,9.0,91,0.00,,,0.00,Wunderground v.1.15,2013-02-04 08:47:00,
2013-02-04 03:51:00,21.7,19.2,30.24,NW,304,0.0,9.0,90,0.00,,,0.00,Wunderground v.1.15,2013-02-04 08:51:00,
2013-02-04 03:54:00,21.6,19.1,30.24,NW,304,0.0,9.0,90,0.00,,,0.00,Wunderground v.1.15,2013-02-04 08:54:00,
2013-02-04 03:56:00,21.5,19.0,30.24,NW,304,0.0,9.0,90,0.00,,,0.00,Wunderground v.1.15,2013-02-04 08:56:00,
2013-02-04 03:57:00,21.5,19.0,30.24,NW,304,0.0,9.0,90,0.00,,,0.00,Wunderground v.1.15,2013-02-04 08:57:00,
2013-02-04 03:59:00,21.5,19.0,30.24,NW,304,0.0,9.0,90,0.00,,,0.00,Wunderground v.1.15,2013-02-04 08:59:00,
2013-02-04 04:04:00,21.2,18.5,30.23,NW,304,0.0,9.0,89,0.00,,,0.00,Wunderground v.1.15,2013-02-04 09:04:00,
2013-02-04 04:05:00,21.2,18.5,30.23,NW,304,0.0,9.0,89,0.00,,,0.00,Wunderground v.1.15,2013-02-04 09:05:00,
2013-02-04 04:07:00,21.1,18.6,30.24,NW,304,0.0,9.0,90,0.00,,,0.00,Wunderground v.1.15,2013-02-04 09:07:00,
2013-02-04 04:09:00,21.1,18.6,30.23,NW,304,0.0,9.0,90,0.00,,,0.00,Wunderground v.1.15,2013-02-04 09:09:00,
2013-02-04 04:11:00,21.0,18.5,30.23,NW,304,0.0,9.0,90,0.00,,,0.00,Wunderground v.1.15,2013-02-04 09:11:00,
2013-02-04 04:13:00,21.1,18.6,30.23,NW,304,0.0,9.0,90,0.00,,,0.00,Wunderground v.1.15,2013-02-04 09:13:00,
2013-02-04 04:15:00,21.1,18.6,30.23,NW,304,0.0,9.0,90,0.00,,,0.00,Wunderground v.1.15,2013-02-04 09:15:00,
2013-02-04 04:16:00,21.1,18.6,30.23,NW,304,0.0,9.0,90,0.00,,,0.00,Wunderground v.1.15,2013-02-04 09:16:00,
2013-02-04 04:18:00,21.2,18.7,30.23,NW,304,0.0,9.0,90,0.00,,,0.00,Wunderground v.1.15,2013-02-04 09:18:00,
2013-02-04 04:19:00,21.2,18.7,30.23,NW,304,0.0,9.0,90,0.00,,,0.00,Wunderground v.1.15,2013-02-04 09:19:00,
2013-02-04 04:22:00,21.2,18.7,30.22,NW,304,0.0,9.0,90,0.00,,,0.00,Wunderground v.1.15,2013-02-04 09:22:00,
2013-02-04 04:23:00,21.2,18.5,30.22,NW,304,0.0,9.0,89,0.00,,,0.00,Wunderground v.1.15,2013-02-04 09:23:00,
2013-02-04 04:24:00,21.1,18.4,30.22,NW,304,0.0,9.0,89,0.00,,,0.00,Wunderground v.1.15,2013-02-04 09:24:00,
2013-02-04 04:25:00,21.1,18.4,30.22,NW,304,0.0,9.0,89,0.00,,,0.00,Wunderground v.1.15,2013-02-04 09:25:00,
2013-02-04 04:29:00,21.1,18.6,30.22,NW,304,0.0,9.0,90,0.00,,,0.00,Wunderground v.1.15,2013-02-04 09:29:00,
2013-02-04 04:30:00,21.0,18.5,30.22,NW,304,0.0,9.0,90,0.00,,,0.00,Wunderground v.1.15,2013-02-04 09:30:00,
2013-02-04 04:31:00,20.9,18.2,30.22,NW,304,0.0,9.0,89,0.00,,,0.00,Wunderground v.1.15,2013-02-04 09:31:00,
2013-02-04 04:36:00,20.8,18.3,30.22,NW,304,0.0,9.0,90,0.00,,,0.00,Wunderground v.1.15,2013-02-04 09:36:00,
2013-02-04 04:38:00,20.7,18.2,30.22,NW,304,0.0,9.0,90,0.00,,,0.00,Wunderground v.1.15,2013-02-04 09:38:00,
2013-02-04 04:39:00,20.7,18.2,30.22,NW,304,0.0,9.0,90,0.00,,,0.00,Wunderground v.1.15,2013-02-04 09:39:00,
2013-02-04 04:42:00,20.7,18.5,30.22,NW,304,0.0,9.0,91,0.00,,,0.00,Wunderground v.1.15,2013-02-04 09:42:00,
2013-02-04 04:43:00,20.8,18.6,30.22,NW,304,0.0,9.0,91,0.00,,,0.00,Wunderground v.1.15,2013-02-04 09:43:00,
2013-02-04 04:45:00,20.8,18.6,30.22,NW,304,0.0,9.0,91,0.00,,,0.00,Wunderground v.1.15,2013-02-04 09:45:00,
2013-02-04 04:47:00,20.8,18.6,30.22,NW,304,0.0,9.0,91,0.00,,,0.00,Wunderground v.1.15,2013-02-04 09:47:00,
2013-02-04 04:48:00,20.8,18.6,30.22,NW,304,0.0,9.0,91,0.00,,,0.00,Wunderground v.1.15,2013-02-04 09:48:00,
2013-02-04 04:50:00,20.8,18.6,30.22,NW,304,0.0,9.0,91,0.00,,,0.00,Wunderground v.1.15,2013-02-04 09:50:00,
2013-02-04 04:53:00,20.5,18.0,30.21,NW,304,0.0,9.0,90,0.00,,,0.00,Wunderground v.1.15,2013-02-04 09:53:00,
2013-02-04 04:54:00,20.4,17.9,30.21,NW,304,0.0,9.0,90,0.00,,,0.00,Wunderground v.1.15,2013-02-04 09:54:00,
2013-02-04 04:56:00,20.2,17.7,30.21,NW,304,0.0,9.0,90,0.00,,,0.00,Wunderground v.1.15,2013-02-04 09:56:00,
2013-02-04 04:57:00,20.2,17.7,30.21,NW,304,0.0,9.0,90,0.00,,,0.00,Wunderground v.1.15,2013-02-04 09:57:00,
2013-02-04 04:58:00,20.1,17.9,30.21,NW,304,0.0,9.0,91,0.00,,,0.00,Wunderground v.1.15,2013-02-04 09:58:00,
2013-02-04 05:04:00,19.8,17.6,30.21,NW,304,0.0,9.0,91,0.00,,,0.00,Wunderground v.1.15,2013-02-04 10:04:00,
2013-02-04 05:05:00,19.8,17.6,30.21,NW,304,0.0,9.0,91,0.00,,,0.00,Wunderground v.1.15,2013-02-04 10:05:00,
2013-02-04 05:06:00,19.8,17.6,30.21,NW,304,0.0,9.0,91,0.00,,,0.00,Wunderground v.1.15,2013-02-04 10:06:00,
2013-02-04 05:08:00,19.7,17.5,30.21,NW,304,0.0,9.0,91,0.00,,,0.00,Wunderground v.1.15,2013-02-04 10:08:00,
2013-02-04 05:11:00,19.7,17.5,30.21,NW,304,0.0,9.0,91,0.00,,,0.00,Wunderground v.1.15,2013-02-04 10:11:00,
2013-02-04 05:12:00,19.7,17.8,30.21,NW,304,0.0,9.0,92,0.00,,,0.00,Wunderground v.1.15,2013-02-04 10:12:00,
2013-02-04 05:13:00,19.7,17.8,30.22,NW,304,0.0,9.0,92,0.00,,,0.00,Wunderground v.1.15,2013-02-04 10:13:00,
2013-02-04 05:15:00,19.7,17.8,30.22,NW,304,0.0,9.0,92,0.00,,,0.00,Wunderground v.1.15,2013-02-04 10:15:00,
2013-02-04 05:18:00,19.6,17.7,30.22,NW,304,0.0,9.0,92,0.00,,,0.00,Wunderground v.1.15,2013-02-04 10:18:00,
2013-02-04 05:19:00,19.6,17.7,30.22,NW,304,0.0,9.0,92,0.00,,,0.00,Wunderground v.1.15,2013-02-04 10:19:00,
2013-02-04 05:20:00,19.5,17.6,30.22,NW,304,0.0,9.0,92,0.00,,,0.00,Wunderground v.1.15,2013-02-04 10:20:00,
2013-02-04 05:21:00,19.5,17.3,30.22,NW,304,0.0,9.0,91,0.00,,,0.00,Wunderground v.1.15,2013-02-04 10:21:00,
2013-02-04 05:25:00,19.3,17.4,30.22,NW,304,0.0,9.0,92,0.00,,,0.00,Wunderground v.1.15,2013-02-04 10:25:00,
2013-02-04 05:27:00,19.3,17.4,30.22,NW,304,0.0,9.0,92,0.00,,,0.00,Wunderground v.1.15,2013-02-04 10:27:00,
2013-02-04 05:28:00,19.3,17.4,30.22,NW,304,0.0,9.0,92,0.00,,,0.00,Wunderground v.1.15,2013-02-04 10:28:00,
2013-02-04 05:32:00,19.1,17.2,30.22,NW,304,0.0,9.0,92,0.00,,,0.00,Wunderground v.1.15,2013-02-04 10:32:00,
2013-02-04 05:33:00,19.1,17.2,30.22,NW,304,0.0,9.0,92,0.00,,,0.00,Wunderground v.1.15,2013-02-04 10:33:00,
2013-02-04 05:34:00,19.1,17.2,30.23,NW,304,0.0,9.0,92,0.00,,,0.00,Wunderground v.1.15,2013-02-04 10:34:00,
2013-02-04 05:37:00,18.9,17.0,30.23,NW,304,0.0,9.0,92,0.00,,,0.00,Wunderground v.1.15,2013-02-04 10:37:00,
2013-02-04 05:39:00,18.6,16.4,30.23,NW,304,0.0,9.0,91,0.00,,,0.00,Wunderground v.1.15,2013-02-04 10:39:00,
2013-02-04 05:41:00,18.4,16.2,30.23,NW,304,0.0,9.0,91,0.00,,,0.00,Wunderground v.1.15,2013-02-04 10:41:00,
2013-02-04 05:42:00,18.3,16.4,30.23,NW,304,0.0,9.0,92,0.00,,,0.00,Wunderground v.1.15,2013-02-04 10:42:00,
2013-02-04 05:43:00,18.3,16.1,30.24,NW,304,0.0,9.0,91,0.00,,,0.00,Wunderground v.1.15,2013-02-04 10:43:00,
2013-02-04 05:47:00,18.6,16.9,30.23,NW,304,0.0,9.0,93,0.00,,,0.00,Wunderground v.1.15,2013-02-04 10:47:00,
2013-02-04 05:48:00,18.8,17.1,30.23,NW,304,0.0,9.0,93,0.00,,,0.00,Wunderground v.1.15,2013-02-04 10:48:00,
2013-02-04 05:49:00,18.8,17.1,30.23,NW,304,0.0,9.0,93,0.00,,,0.00,Wunderground v.1.15,2013-02-04 10:49:00,
2013-02-04 05:50:00,18.9,17.2,30.24,NW,304,0.0,9.0,93,0.00,,,0.00,Wunderground v.1.15,2013-02-04 10:50:00,
2013-02-04 05:54:00,19.2,17.8,30.24,NW,304,0.0,9.0,94,0.00,,,0.00,Wunderground v.1.15,2013-02-04 10:54:00,
2013-02-04 05:56:00,19.3,17.9,30.24,NW,304,0.0,9.0,94,0.00,,,0.00,Wunderground v.1.15,2013-02-04 10:56:00,
2013-02-04 05:57:00,19.3,17.9,30.24,NW,304,0.0,9.0,94,0.00,,,0.00,Wunderground v.1.15,2013-02-04 10:57:00,
2013-02-04 06:01:00,19.2,17.5,30.24,NW,304,0.0,9.0,93,0.00,,,0.00,Wunderground v.1.15,2013-02-04 11:01:00,
2013-02-04 06:03:00,19.2,17.5,30.24,NW,304,0.0,9.0,93,0.00,,,0.00,Wunderground v.1.15,2013-02-04 11:03:00,
2013-02-04 06:04:00,19.2,17.5,30.24,NW,304,0.0,9.0,93,0.00,,,0.00,Wunderground v.1.15,2013-02-04 11:04:00,
2013-02-04 06:07:00,19.4,18.0,30.25,NW,304,0.0,9.0,94,0.00,,,0.00,Wunderground v.1.15,2013-02-04 11:07:00,
2013-02-04 06:08:00,19.4,17.7,30.25,NW,304,0.0,9.0,93,0.00,,,0.00,Wunderground v.1.15,2013-02-04 11:08:00,
2013-02-04 06:12:00,19.4,17.7,30.25,NW,304,0.0,9.0,93,0.00,,,0.00,Wunderground v.1.15,2013-02-04 11:12:00,
2013-02-04 06:13:00,19.5,18.1,30.25,NW,304,0.0,9.0,94,0.00,,,0.00,Wunderground v.1.15,2013-02-04 11:13:00,
2013-02-04 06:15:00,19.5,18.1,30.25,NW,304,0.0,9.0,94,0.00,,,0.00,Wunderground v.1.15,2013-02-04 11:15:00,
2013-02-04 06:16:00,19.6,18.2,30.25,NW,304,0.0,9.0,94,0.00,,,0.00,Wunderground v.1.15,2013-02-04 11:16:00,
2013-02-04 06:17:00,19.6,18.2,30.25,NW,304,0.0,9.0,94,0.00,,,0.00,Wunderground v.1.15,2013-02-04 11:17:00,
2013-02-04 06:18:00,19.7,18.3,30.25,NW,304,0.0,9.0,94,0.00,,,0.00,Wunderground v.1.15,2013-02-04 11:18:00,
2013-02-04 06:22:00,19.7,18.3,30.24,NW,304,0.0,9.0,94,0.00,,,0.00,Wunderground v.1.15,2013-02-04 11:22:00,
2013-02-04 06:24:00,19.8,18.4,30.24,NW,304,0.0,9.0,94,0.00,,,0.00,Wunderground v.1.15,2013-02-04 11:24:00,
2013-02-04 06:28:00,19.9,18.5,30.25,NW,304,0.0,9.0,94,0.00,,,0.00,Wunderground v.1.15,2013-02-04 11:28:00,
2013-02-04 06:29:00,20.0,18.6,30.25,NW,304,0.0,9.0,94,0.00,,,0.00,Wunderground v.1.15,2013-02-04 11:29:00,
2013-02-04 06:32:00,19.9,18.5,30.25,NW,304,0.0,9.0,94,0.00,,,0.00,Wunderground v.1.15,2013-02-04 11:32:00,
2013-02-04 06:34:00,19.9,18.5,30.25,NW,304,0.0,9.0,94,0.00,,,0.00,Wunderground v.1.15,2013-02-04 11:34:00,
2013-02-04 06:39:00,20.0,18.6,30.24,NW,304,0.0,9.0,94,0.00,,,0.00,Wunderground v.1.15,2013-02-04 11:39:00,
2013-02-04 06:40:00,20.0,18.6,30.24,NW,304,0.0,9.0,94,0.00,,,0.00,Wunderground v.1.15,2013-02-04 11:40:00,
2013-02-04 06:42:00,20.0,18.6,30.24,NW,304,0.0,9.0,94,0.00,,,0.00,Wunderground v.1.15,2013-02-04 11:42:00,
2013-02-04 06:46:00,20.1,18.7,30.23,NW,304,0.0,9.0,94,0.00,,,0.00,Wunderground v.1.15,2013-02-04 11:46:00,
2013-02-04 06:47:00,20.2,18.5,30.23,NW,304,0.0,9.0,93,0.00,,,0.00,Wunderground v.1.15,2013-02-04 11:47:00,
2013-02-04 06:49:00,20.2,18.8,30.24,NW,304,0.0,9.0,94,0.00,,,0.00,Wunderground v.1.15,2013-02-04 11:49:00,
2013-02-04 06:51:00,20.3,18.6,30.24,NW,304,0.0,9.0,93,0.00,,,0.00,Wunderground v.1.15,2013-02-04 11:51:00,
2013-02-04 06:53:00,20.4,18.7,30.23,NW,304,0.0,9.0,93,0.00,,,0.00,Wunderground v.1.15,2013-02-04 11:53:00,
2013-02-04 06:56:00,20.5,19.0,30.23,NW,304,0.0,9.0,94,0.00,,,0.00,Wunderground v.1.15,2013-02-04 11:56:00,
2013-02-04 06:57:00,20.5,19.0,30.23,NW,304,0.0,9.0,94,0.00,,,0.00,Wunderground v.1.15,2013-02-04 11:57:00,
2013-02-04 06:59:00,20.6,18.9,30.23,NW,304,0.0,9.0,93,0.00,,,0.00,Wunderground v.1.15,2013-02-04 11:59:00,
2013-02-04 07:01:00,20.6,18.9,30.23,NW,304,0.0,9.0,93,0.00,,,0.00,Wunderground v.1.15,2013-02-04 12:01:00,
2013-02-04 07:04:00,20.6,18.9,30.22,NW,304,0.0,9.0,93,0.00,,,0.00,Wunderground v.1.15,2013-02-04 12:04:00,
2013-02-04 07:06:00,20.6,18.9,30.22,NW,304,0.0,9.0,93,0.00,,,0.00,Wunderground v.1.15,2013-02-04 12:06:00,
2013-02-04 07:09:00,20.5,18.8,30.23,NW,304,0.0,9.0,93,0.00,,,0.00,Wunderground v.1.15,2013-02-04 12:09:00,
2013-02-04 07:10:00,20.5,18.8,30.22,NW,304,0.0,9.0,93,0.00,,,0.00,Wunderground v.1.15,2013-02-04 12:10:00,
2013-02-04 07:11:00,20.5,18.8,30.22,NW,304,0.0,9.0,93,0.00,,,0.00,Wunderground v.1.15,2013-02-04 12:11:00,
2013-02-04 07:12:00,20.5,18.8,30.22,NW,304,0.0,9.0,93,0.00,,,0.00,Wunderground v.1.15,2013-02-04 12:12:00,
2013-02-04 07:15:00,20.4,18.7,30.22,NW,304,0.0,9.0,93,0.00,,,0.00,Wunderground v.1.15,2013-02-04 12:15:00,
2013-02-04 07:16:00,20.4,18.7,30.22,NW,304,0.0,9.0,93,0.00,,,0.00,Wunderground v.1.15,2013-02-04 12:16:00,
2013-02-04 07:17:00,20.4,18.7,30.22,NW,304,0.0,9.0,93,0.00,,,0.00,Wunderground v.1.15,2013-02-04 12:17:00,
2013-02-04 07:18:00,20.3,18.6,30.22,NW,304,0.0,9.0,93,0.00,,,0.00,Wunderground v.1.15,2013-02-04 12:18:00,
2013-02-04 07:21:00,20.2,18.2,30.22,NW,304,0.0,9.0,92,0.00,,,0.00,Wunderground v.1.15,2013-02-04 12:21:00,
2013-02-04 07:23:00,19.9,18.0,30.21,NW,304,0.0,9.0,92,0.00,,,0.00,Wunderground v.1.15,2013-02-04 12:23:00,
2013-02-04 07:24:00,19.9,18.0,30.21,NW,304,0.0,9.0,92,0.00,,,0.00,Wunderground v.1.15,2013-02-04 12:24:00,
2013-02-04 07:26:00,19.7,17.8,30.21,NW,304,0.0,9.0,92,0.00,,,0.00,Wunderground v.1.15,2013-02-04 12:26:00,
2013-02-04 07:28:00,19.6,17.7,30.21,NW,304,0.0,9.0,92,0.00,,,0.00,Wunderground v.1.15,2013-02-04 12:28:00,
2013-02-04 07:31:00,19.5,17.6,30.21,NW,304,0.0,9.0,92,0.00,,,0.00,Wunderground v.1.15,2013-02-04 12:31:00,
2013-02-04 07:36:00,19.5,17.8,30.21,NW,304,0.0,9.0,93,0.00,,,0.00,Wunderground v.1.15,2013-02-04 12:36:00,
2013-02-04 07:37:00,19.4,17.7,30.21,NW,304,0.0,9.0,93,0.00,,,0.00,Wunderground v.1.15,2013-02-04 12:37:00,
2013-02-04 07:39:00,19.4,17.7,30.21,NW,304,0.0,9.0,93,0.00,,,0.00,Wunderground v.1.15,2013-02-04 12:39:00,
2013-02-04 07:40:00,19.4,17.7,30.21,NW,304,0.0,9.0,93,0.00,,,0.00,Wunderground v.1.15,2013-02-04 12:40:00,
2013-02-04 07:44:00,19.3,17.6,30.21,NW,304,0.0,9.0,93,0.00,,,0.00,Wunderground v.1.15,2013-02-04 12:44:00,
2013-02-04 07:45:00,19.3,17.6,30.21,NW,304,0.0,9.0,93,0.00,,,0.00,Wunderground v.1.15,2013-02-04 12:45:00,
2013-02-04 07:46:00,19.3,17.6,30.21,NW,304,0.0,9.0,93,0.00,,,0.00,Wunderground v.1.15,2013-02-04 12:46:00,
2013-02-04 07:47:00,19.3,17.6,30.21,NW,304,0.0,9.0,93,0.00,,,0.00,Wunderground v.1.15,2013-02-04 12:47:00,
2013-02-04 07:50:00,19.3,17.6,30.22,NW,304,0.0,9.0,93,0.00,,,0.00,Wunderground v.1.15,2013-02-04 12:50:00,
2013-02-04 07:51:00,19.3,17.6,30.22,NW,304,0.0,9.0,93,0.00,,,0.00,Wunderground v.1.15,2013-02-04 12:51:00,
2013-02-04 07:52:00,19.3,17.6,30.22,NW,304,0.0,9.0,93,0.00,,,0.00,Wunderground v.1.15,2013-02-04 12:52:00,
2013-02-04 07:53:00,19.3,17.6,30.22,NW,304,0.0,9.0,93,0.00,,,0.00,Wunderground v.1.15,2013-02-04 12:53:00,
2013-02-04 07:56:00,19.4,17.7,30.21,NW,304,0.0,9.0,93,0.00,,,0.00,Wunderground v.1.15,2013-02-04 12:56:00,
2013-02-04 07:57:00,19.4,17.7,30.22,NW,304,0.0,9.0,93,0.00,,,0.00,Wunderground v.1.15,2013-02-04 12:57:00,
2013-02-04 07:58:00,19.4,18.0,30.22,NW,304,0.0,9.0,94,0.00,,,0.00,Wunderground v.1.15,2013-02-04 12:58:00,
2013-02-04 08:03:00,19.5,17.8,30.21,NW,304,0.0,9.0,93,0.00,,,0.00,Wunderground v.1.15,2013-02-04 13:03:00,
2013-02-04 08:04:00,19.5,17.8,30.21,NW,304,0.0,9.0,93,0.00,,,0.00,Wunderground v.1.15,2013-02-04 13:04:00,
2013-02-04 08:05:00,19.5,18.1,30.21,NW,304,0.0,9.0,94,0.00,,,0.00,Wunderground v.1.15,2013-02-04 13:05:00,
2013-02-04 08:08:00,19.5,17.8,30.21,NW,304,0.0,9.0,93,0.00,,,0.00,Wunderground v.1.15,2013-02-04 13:08:00,
2013-02-04 08:09:00,19.5,17.8,30.21,NW,304,0.0,9.0,93,0.00,,,0.00,Wunderground v.1.15,2013-02-04 13:09:00,
2013-02-04 08:12:00,19.5,18.1,30.21,NW,304,0.0,9.0,94,0.00,,,0.00,Wunderground v.1.15,2013-02-04 13:12:00,
2013-02-04 08:13:00,19.5,18.1,30.21,NW,304,0.0,9.0,94,0.00,,,0.00,Wunderground v.1.15,2013-02-04 13:13:00,
2013-02-04 08:16:00,19.5,18.1,30.21,NW,304,0.0,9.0,94,0.00,,,0.00,Wunderground v.1.15,2013-02-04 13:16:00,
2013-02-04 08:17:00,19.5,18.1,30.21,NW,304,0.0,9.0,94,0.00,,,0.00,Wunderground v.1.15,2013-02-04 13:17:00,
2013-02-04 08:18:00,19.5,18.1,30.21,NW,304,0.0,9.0,94,0.00,,,0.00,Wunderground v.1.15,2013-02-04 13:18:00,
2013-02-04 08:23:00,19.5,17.8,30.21,NW,304,0.0,9.0,93,0.00,,,0.00,Wunderground v.1.15,2013-02-04 13:23:00,
2013-02-04 08:24:00,19.5,17.8,30.21,NW,304,0.0,9.0,93,0.00,,,0.00,Wunderground v.1.15,2013-02-04 13:24:00,
2013-02-04 08:26:00,19.5,17.8,30.21,NW,304,0.0,9.0,93,0.00,,,0.00,Wunderground v.1.15,2013-02-04 13:26:00,
2013-02-04 08:31:00,19.5,17.8,30.21,NW,304,0.0,9.0,93,0.00,,,0.00,Wunderground v.1.15,2013-02-04 13:31:00,
2013-02-04 08:32:00,19.5,17.8,30.21,NW,304,0.0,9.0,93,0.00,,,0.00,Wunderground v.1.15,2013-02-04 13:32:00,
2013-02-04 08:35:00,19.6,17.9,30.21,NW,304,0.0,9.0,93,0.00,,,0.00,Wunderground v.1.15,2013-02-04 13:35:00,
2013-02-04 08:37:00,19.6,17.9,30.21,NW,304,0.0,9.0,93,0.00,,,0.00,Wunderground v.1.15,2013-02-04 13:37:00,
2013-02-04 08:38:00,19.6,17.9,30.21,NW,304,0.0,9.0,93,0.00,,,0.00,Wunderground v.1.15,2013-02-04 13:38:00,
2013-02-04 08:39:00,19.6,17.9,30.21,NW,304,0.0,9.0,93,0.00,,,0.00,Wunderground v.1.15,2013-02-04 13:39:00,
2013-02-04 08:42:00,19.7,18.0,30.21,NW,304,0.0,9.0,93,0.00,,,0.00,Wunderground v.1.15,2013-02-04 13:42:00,
2013-02-04 08:45:00,19.8,18.1,30.21,NW,304,0.0,9.0,93,0.00,,,0.00,Wunderground v.1.15,2013-02-04 13:45:00,
2013-02-04 08:48:00,19.9,18.2,30.21,NW,304,0.0,9.0,93,0.00,,,0.00,Wunderground v.1.15,2013-02-04 13:48:00,
2013-02-04 08:52:00,20.0,18.3,30.21,NW,304,0.0,9.0,93,0.00,,,0.00,Wunderground v.1.15,2013-02-04 13:52:00,
2013-02-04 08:53:00,20.1,18.4,30.21,NW,304,0.0,9.0,93,0.00,,,0.00,Wunderground v.1.15,2013-02-04 13:53:00,
2013-02-04 08:54:00,20.1,18.4,30.21,NW,304,0.0,9.0,93,0.00,,,0.00,Wunderground v.1.15,2013-02-04 13:54:00,
2013-02-04 08:56:00,20.2,18.5,30.21,NW,304,0.0,9.0,93,0.00,,,0.00,Wunderground v.1.15,2013-02-04 13:56:00,
2013-02-04 08:59:00,20.5,19.0,30.21,NW,304,0.0,9.0,94,0.00,,,0.00,Wunderground v.1.15,2013-02-04 13:59:00,
2013-02-04 09:02:00,20.9,19.4,30.21,NW,304,0.0,9.0,94,0.00,,,0.00,Wunderground v.1.15,2013-02-04 14:02:00,
2013-02-04 09:04:00,21.1,19.6,30.20,NW,304,0.0,9.0,94,0.00,,,0.00,Wunderground v.1.15,2013-02-04 14:04:00,
2013-02-04 09:05:00,21.2,19.7,30.20,NW,304,0.0,9.0,94,0.00,,,0.00,Wunderground v.1.15,2013-02-04 14:05:00,
2013-02-04 09:07:00,21.4,19.7,30.20,NW,304,0.0,9.0,93,0.00,,,0.00,Wunderground v.1.15,2013-02-04 14:07:00,
2013-02-04 09:11:00,21.7,20.0,30.20,NW,304,0.0,9.0,93,0.00,,,0.00,Wunderground v.1.15,2013-02-04 14:11:00,
2013-02-04 09:12:00,21.7,20.0,30.20,NW,304,0.0,9.0,93,0.00,,,0.00,Wunderground v.1.15,2013-02-04 14:12:00,
2013-02-04 09:14:00,21.9,20.2,30.19,NW,304,0.0,9.0,93,0.00,,,0.00,Wunderground v.1.15,2013-02-04 14:14:00,
2013-02-04 09:17:00,22.1,20.4,30.19,NW,304,0.0,9.0,93,0.00,,,0.00,Wunderground v.1.15,2013-02-04 14:17:00,
2013-02-04 09:19:00,22.2,20.5,30.19,NW,304,0.0,9.0,93,0.00,,,0.00,Wunderground v.1.15,2013-02-04 14:19:00,
2013-02-04 09:20:00,22.3,20.3,30.19,NW,304,0.0,9.0,92,0.00,,,0.00,Wunderground v.1.15,2013-02-04 14:20:00,
2013-02-04 09:23:00,22.5,20.5,30.19,South,190,1.0,9.0,92,0.00,,,0.00,Wunderground v.1.15,2013-02-04 14:23:00,
2013-02-04 09:25:00,22.6,20.6,30.19,SSW,199,1.0,9.0,92,0.00,,,0.00,Wunderground v.1.15,2013-02-04 14:25:00,
2013-02-04 09:26:00,22.6,20.6,30.19,SSW,193,1.0,9.0,92,0.00,,,0.00,Wunderground v.1.15,2013-02-04 14:26:00,
2013-02-04 09:27:00,22.7,20.7,30.19,SSW,195,1.0,9.0,92,0.00,,,0.00,Wunderground v.1.15,2013-02-04 14:27:00,
2013-02-04 09:31:00,23.0,21.0,30.18,South,186,2.0,9.0,92,0.00,,,0.00,Wunderground v.1.15,2013-02-04 14:31:00,
2013-02-04 09:32:00,23.1,21.1,30.18,SSW,199,2.0,9.0,92,0.00,,,0.00,Wunderground v.1.15,2013-02-04 14:32:00,
2013-02-04 09:33:00,23.2,21.2,30.18,SSE,165,2.0,9.0,92,0.00,,,0.00,Wunderground v.1.15,2013-02-04 14:33:00,
2013-02-04 09:36:00,23.5,21.5,30.18,SSW,198,2.0,9.0,92,0.00,,,0.00,Wunderground v.1.15,2013-02-04 14:36:00,
2013-02-04 09:38:00,23.8,21.8,30.18,SW,227,2.0,9.0,92,0.00,,,0.00,Wunderground v.1.15,2013-02-04 14:38:00,
2013-02-04 09:41:00,24.1,21.9,30.18,SSW,198,1.0,1.0,91,0.00,,,0.00,Wunderground v.1.15,2013-02-04 14:41:00,
2013-02-04 09:43:00,24.3,22.1,30.18,South,182,1.0,9.0,91,0.00,,,0.00,Wunderground v.1.15,2013-02-04 14:43:00,
2013-02-04 09:44:00,24.4,22.2,30.18,SW,225,1.0,9.0,91,0.00,,,0.00,Wunderground v.1.15,2013-02-04 14:44:00,
2013-02-04 09:47:00,24.6,22.1,30.17,South,178,2.0,9.0,90,0.00,,,0.00,Wunderground v.1.15,2013-02-04 14:47:00,
2013-02-04 09:49:00,24.7,22.2,30.17,South,184,2.0,9.0,90,0.00,,,0.00,Wunderground v.1.15,2013-02-04 14:49:00,
2013-02-04 09:51:00,25.2,22.7,30.17,SSW,203,2.0,9.0,90,0.00,,,0.00,Wunderground v.1.15,2013-02-04 14:51:00,
2013-02-04 09:55:00,25.8,23.3,30.17,SSW,193,3.0,9.0,90,0.00,,,0.00,Wunderground v.1.15,2013-02-04 14:55:00,
2013-02-04 09:56:00,26.0,23.5,30.17,SSW,195,3.0,9.0,90,0.00,,,0.00,Wunderground v.1.15,2013-02-04 14:56:00,
2013-02-04 09:59:00,26.4,23.9,30.17,SW,219,2.0,9.0,90,0.00,,,0.00,Wunderground v.1.15,2013-02-04 14:59:00,
2013-02-04 10:01:00,26.6,23.8,30.17,SSE,159,3.0,9.0,89,0.00,,,0.00,Wunderground v.1.15,2013-02-04 15:01:00,
2013-02-04 10:02:00,26.9,23.8,30.17,SSW,194,3.0,9.0,88,0.00,,,0.00,Wunderground v.1.15,2013-02-04 15:02:00,
2013-02-04 10:04:00,27.1,24.0,30.17,SW,224,3.0,9.0,88,0.00,,,0.00,Wunderground v.1.15,2013-02-04 15:04:00,
2013-02-04 10:05:00,27.2,24.1,30.17,SW,224,3.0,9.0,88,0.00,,,0.00,Wunderground v.1.15,2013-02-04 15:05:00,
2013-02-04 10:08:00,27.6,24.5,30.17,SSW,213,4.0,9.0,88,0.00,,,0.00,Wunderground v.1.15,2013-02-04 15:08:00,
2013-02-04 10:11:00,27.9,24.5,30.17,South,189,4.0,9.0,87,0.00,,,0.00,Wunderground v.1.15,2013-02-04 15:11:00,
2013-02-04 10:12:00,28.0,24.6,30.17,South,188,4.0,9.0,87,0.00,,,0.00,Wunderground v.1.15,2013-02-04 15:12:00,
2013-02-04 10:13:00,28.1,24.7,30.17,SSW,200,4.0,9.0,87,0.00,,,0.00,Wunderground v.1.15,2013-02-04 15:13:00,
2013-02-04 10:17:00,28.6,24.9,30.17,SSW,212,4.0,9.0,86,0.00,,,0.00,Wunderground v.1.15,2013-02-04 15:17:00,
2013-02-04 10:18:00,28.7,25.0,30.17,SSW,205,4.0,9.0,86,0.00,,,0.00,Wunderground v.1.15,2013-02-04 15:18:00,
2013-02-04 10:19:00,28.8,25.1,30.17,South,172,4.0,9.0,86,0.00,,,0.00,Wunderground v.1.15,2013-02-04 15:19:00,
2013-02-04 10:23:00,29.0,25.3,30.16,WSW,250,5.0,10.0,86,0.00,,,0.00,Wunderground v.1.15,2013-02-04 15:23:00,
2013-02-04 10:24:00,29.1,25.2,30.16,SSW,196,5.0,10.0,85,0.00,,,0.00,Wunderground v.1.15,2013-02-04 15:24:00,
2013-02-04 10:26:00,29.2,25.3,30.16,SSW,200,6.0,10.0,85,0.00,,,0.00,Wunderground v.1.15,2013-02-04 15:26:00,
2013-02-04 10:28:00,29.4,25.4,30.16,SW,225,6.0,10.0,85,0.00,,,0.00,Wunderground v.1.15,2013-02-04 15:28:00,
2013-02-04 10:30:00,29.6,25.6,30.16,WSW,242,7.0,12.0,85,0.00,,,0.00,Wunderground v.1.15,2013-02-04 15:30:00,
2013-02-04 10:31:00,29.6,25.4,30.16,SW,233,7.0,9.0,84,0.00,,,0.00,Wunderground v.1.15,2013-02-04 15:31:00,
2013-02-04 10:34:00,29.8,25.6,30.16,SW,234,8.0,13.0,84,0.00,,,0.00,Wunderground v.1.15,2013-02-04 15:34:00,
2013-02-04 10:36:00,29.9,25.7,30.16,SW,232,8.0,13.0,84,0.00,,,0.00,Wunderground v.1.15,2013-02-04 15:36:00,
2013-02-04 10:39:00,30.1,25.6,30.16,SW,215,8.0,13.0,83,0.00,,,0.00,Wunderground v.1.15,2013-02-04 15:39:00,
2013-02-04 10:40:00,30.2,25.9,30.16,South,186,7.0,13.0,84,0.00,,,0.00,Wunderground v.1.15,2013-02-04 15:40:00,
2013-02-04 10:41:00,30.3,26.0,30.15,SW,229,7.0,9.0,84,0.00,,,0.00,Wunderground v.1.15,2013-02-04 15:41:00,
2013-02-04 10:42:00,30.3,25.8,30.15,SW,224,7.0,9.0,83,0.00,,,0.00,Wunderground v.1.15,2013-02-04 15:42:00,
2013-02-04 10:45:00,30.5,26.0,30.15,SSW,209,6.0,9.0,83,0.00,,,0.00,Wunderground v.1.15,2013-02-04 15:45:00,
2013-02-04 10:50:00,30.6,25.8,30.15,South,183,7.0,11.0,82,0.00,,,0.00,Wunderground v.1.15,2013-02-04 15:50:00,
2013-02-04 10:52:00,30.8,26.0,30.15,SSW,200,6.0,9.0,82,0.00,,,0.00,Wunderground v.1.15,2013-02-04 15:52:00,
2013-02-04 10:56:00,31.1,26.2,30.15,WSW,251,6.0,9.0,82,0.00,,,0.00,Wunderground v.1.15,2013-02-04 15:56:00,
2013-02-04 10:59:00,31.3,26.4,30.15,SSW,193,5.0,9.0,82,0.00,,,0.00,Wunderground v.1.15,2013-02-04 15:59:00,
2013-02-04 11:01:00,31.4,26.5,30.15,SSW,199,5.0,5.0,82,0.00,,,0.00,Wunderground v.1.15,2013-02-04 16:01:00,
2013-02-04 11:03:00,31.7,26.5,30.15,SW,215,4.0,9.0,81,0.00,,,0.00,Wunderground v.1.15,2013-02-04 16:03:00,
2013-02-04 11:04:00,31.7,26.5,30.15,SW,230,4.0,9.0,81,0.00,,,0.00,Wunderground v.1.15,2013-02-04 16:04:00,
2013-02-04 11:05:00,31.8,26.3,30.15,SW,225,4.0,9.0,80,0.00,,,0.00,Wunderground v.1.15,2013-02-04 16:05:00,
2013-02-04 11:07:00,31.9,26.1,30.15,West,263,5.0,9.0,79,0.00,,,0.00,Wunderground v.1.15,2013-02-04 16:07:00,
2013-02-04 11:09:00,31.8,26.0,30.15,SSW,212,5.0,12.0,79,0.00,,,0.00,Wunderground v.1.15,2013-02-04 16:09:00,
2013-02-04 11:13:00,32.0,26.2,30.14,SSW,200,7.0,10.0,79,0.00,,,0.00,Wunderground v.1.15,2013-02-04 16:13:00,
2013-02-04 11:15:00,32.0,26.2,30.14,SSW,202,7.0,10.0,79,0.00,,,0.00,Wunderground v.1.15,2013-02-04 16:15:00,
2013-02-04 11:19:00,32.2,26.4,30.14,SW,221,7.0,10.0,79,0.00,,,0.00,Wunderground v.1.15,2013-02-04 16:19:00,
2013-02-04 11:21:00,32.4,26.3,30.14,SSW,209,7.0,7.0,78,0.00,,,0.00,Wunderground v.1.15,2013-02-04 16:21:00,
2013-02-04 11:23:00,32.5,26.4,30.13,WSW,238,7.0,9.0,78,0.00,,,0.00,Wunderground v.1.15,2013-02-04 16:23:00,
2013-02-04 11:26:00,32.7,26.3,30.13,SSW,205,7.0,10.0,77,0.00,,,0.00,Wunderground v.1.15,2013-02-04 16:26:00,
2013-02-04 11:27:00,32.8,26.7,30.13,SSW,209,6.0,10.0,78,0.00,,,0.00,Wunderground v.1.15,2013-02-04 16:27:00,
2013-02-04 11:28:00,32.9,26.5,30.13,SSW,207,6.0,10.0,77,0.00,,,0.00,Wunderground v.1.15,2013-02-04 16:28:00,
2013-02-04 11:31:00,33.3,26.9,30.13,SW,233,6.0,6.0,77,0.00,,,0.00,Wunderground v.1.15,2013-02-04 16:31:00,
2013-02-04 11:32:00,33.4,27.0,30.12,SSW,211,6.0,9.0,77,0.00,,,0.00,Wunderground v.1.15,2013-02-04 16:32:00,
2013-02-04 11:33:00,33.6,27.2,30.12,SSW,204,6.0,9.0,77,0.00,,,0.00,Wunderground v.1.15,2013-02-04 16:33:00,
2013-02-04 11:34:00,33.7,27.3,30.12,WSW,246,6.0,9.0,77,0.00,,,0.00,Wunderground v.1.15,2013-02-04 16:34:00,
2013-02-04 11:38:00,34.1,27.3,30.12,SW,232,6.0,10.0,76,0.00,,,0.00,Wunderground v.1.15,2013-02-04 16:38:00,
2013-02-04 11:42:00,34.1,27.0,30.12,WSW,241,6.0,9.0,75,0.00,,,0.00,Wunderground v.1.15,2013-02-04 16:42:00,
2013-02-04 11:44:00,34.2,27.4,30.12,SSW,205,6.0,9.0,76,0.00,,,0.00,Wunderground v.1.15,2013-02-04 16:44:00,
2013-02-04 11:47:00,34.5,27.4,30.12,SW,232,5.0,9.0,75,0.00,,,0.00,Wunderground v.1.15,2013-02-04 16:47:00,
2013-02-04 11:50:00,34.9,27.5,30.12,SW,226,5.0,9.0,74,0.00,,,0.00,Wunderground v.1.15,2013-02-04 16:50:00,
2013-02-04 11:52:00,35.3,27.5,30.12,SW,223,5.0,10.0,73,0.00,,,0.01,Wunderground v.1.15,2013-02-04 16:52:00,
2013-02-04 11:53:00,35.4,27.6,30.12,SSW,198,4.0,10.0,73,0.00,,,0.01,Wunderground v.1.15,2013-02-04 16:53:00,
2013-02-04 11:56:00,35.8,27.7,30.11,SW,228,4.0,10.0,72,0.00,,,0.01,Wunderground v.1.15,2013-02-04 16:56:00,
2013-02-04 11:57:00,35.8,27.3,30.11,SW,227,5.0,10.0,71,0.00,,,0.01,Wunderground v.1.15,2013-02-04 16:57:00,
2013-02-04 11:59:00,36.0,27.5,30.11,South,183,5.0,10.0,71,0.00,,,0.01,Wunderground v.1.15,2013-02-04 16:59:00,
2013-02-04 12:02:00,36.3,27.4,30.10,SSW,199,5.0,9.0,70,0.00,,,0.01,Wunderground v.1.15,2013-02-04 17:02:00,
2013-02-04 12:04:00,36.5,27.3,30.10,WSW,241,4.0,12.0,69,0.00,,,0.01,Wunderground v.1.15,2013-02-04 17:04:00,
2013-02-04 12:06:00,36.6,27.4,30.10,SW,225,5.0,12.0,69,0.00,,,0.01,Wunderground v.1.15,2013-02-04 17:06:00,
2013-02-04 12:07:00,36.7,27.5,30.10,SW,216,5.0,12.0,69,0.04,,,0.02,Wunderground v.1.15,2013-02-04 17:07:00,
2013-02-04 12:11:00,37.0,27.4,30.09,SW,215,5.0,9.0,68,0.04,,,0.02,Wunderground v.1.15,2013-02-04 17:11:00,
2013-02-04 12:12:00,37.1,27.5,30.09,SW,232,5.0,9.0,68,0.04,,,0.02,Wunderground v.1.15,2013-02-04 17:12:00,
2013-02-04 12:13:00,37.2,27.6,30.08,WSW,246,5.0,9.0,68,0.04,,,0.02,Wunderground v.1.15,2013-02-04 17:13:00,
2013-02-04 12:17:00,37.7,27.7,30.08,West,279,5.0,9.0,67,0.04,,,0.02,Wunderground v.1.15,2013-02-04 17:17:00,
2013-02-04 12:18:00,37.9,27.5,30.08,South,179,5.0,9.0,66,0.04,,,0.02,Wunderground v.1.15,2013-02-04 17:18:00,
2013-02-04 12:19:00,37.9,27.5,30.08,SW,216,5.0,9.0,66,0.04,,,0.02,Wunderground v.1.15,2013-02-04 17:19:00,
2013-02-04 12:20:00,37.9,27.5,30.09,SW,222,5.0,9.0,66,0.04,,,0.02,Wunderground v.1.15,2013-02-04 17:20:00,
2013-02-04 12:24:00,37.8,27.5,30.08,SW,225,4.0,9.0,66,0.00,,,0.02,Wunderground v.1.15,2013-02-04 17:24:00,
2013-02-04 12:25:00,37.8,27.1,30.08,South,174,4.0,13.0,65,0.00,,,0.02,Wunderground v.1.15,2013-02-04 17:25:00,
2013-02-04 12:28:00,37.8,27.1,30.08,South,181,4.0,13.0,65,0.00,,,0.02,Wunderground v.1.15,2013-02-04 17:28:00,
2013-02-04 12:29:00,37.8,26.7,30.08,SE,146,4.0,13.0,64,0.00,,,0.02,Wunderground v.1.15,2013-02-04 17:29:00,
2013-02-04 12:33:00,38.1,26.6,30.07,South,180,5.0,9.0,63,0.00,,,0.02,Wunderground v.1.15,2013-02-04 17:33:00,
2013-02-04 12:34:00,38.2,26.7,30.07,SSW,212,5.0,9.0,63,0.00,,,0.02,Wunderground v.1.15,2013-02-04 17:34:00,
2013-02-04 12:36:00,38.3,27.2,30.07,SSW,201,5.0,9.0,64,0.00,,,0.02,Wunderground v.1.15,2013-02-04 17:36:00,
2013-02-04 12:38:00,38.5,27.0,30.07,SSW,200,5.0,9.0,63,0.00,,,0.02,Wunderground v.1.15,2013-02-04 17:38:00,
2013-02-04 12:39:00,38.6,27.5,30.07,SSW,209,5.0,9.0,64,0.00,,,0.02,Wunderground v.1.15,2013-02-04 17:39:00,
2013-02-04 12:43:00,38.9,27.0,30.06,SW,232,5.0,9.0,62,0.00,,,0.02,Wunderground v.1.15,2013-02-04 17:43:00,
2013-02-04 12:46:00,39.1,27.2,30.06,West,267,5.0,9.0,62,0.00,,,0.02,Wunderground v.1.15,2013-02-04 17:46:00,
2013-02-04 12:47:00,39.2,26.9,30.06,WSW,250,5.0,10.0,61,0.00,,,0.02,Wunderground v.1.15,2013-02-04 17:47:00,
2013-02-04 12:51:00,39.5,26.8,30.06,SW,214,5.0,9.0,60,0.00,,,0.03,Wunderground v.1.15,2013-02-04 17:51:00,
2013-02-04 12:54:00,39.6,26.8,30.06,SSW,199,6.0,10.0,60,0.00,,,0.03,Wunderground v.1.15,2013-02-04 17:54:00,
2013-02-04 12:55:00,39.7,26.9,30.06,SSW,203,6.0,10.0,60,0.00,,,0.03,Wunderground v.1.15,2013-02-04 17:55:00,
2013-02-04 12:56:00,39.8,26.2,30.05,WSW,245,6.0,11.0,58,0.00,,,0.03,Wunderground v.1.15,2013-02-04 17:56:00,
2013-02-04 13:01:00,39.8,25.8,30.05,SW,227,8.0,8.0,57,0.00,,,0.03,Wunderground v.1.15,2013-02-04 18:01:00,
2013-02-04 13:02:00,40.0,26.8,30.05,WSW,254,8.0,9.0,59,0.00,,,0.03,Wunderground v.1.15,2013-02-04 18:02:00,
2013-02-04 13:03:00,40.1,26.5,30.05,SSW,206,8.0,9.0,58,0.00,,,0.03,Wunderground v.1.15,2013-02-04 18:03:00,
2013-02-04 13:07:00,40.5,26.4,30.05,SSW,194,7.0,9.0,57,0.00,,,0.03,Wunderground v.1.15,2013-02-04 18:07:00,
2013-02-04 13:11:00,40.9,26.8,30.04,SW,233,5.0,5.0,57,0.00,,,0.03,Wunderground v.1.15,2013-02-04 18:11:00,
2013-02-04 13:12:00,40.9,26.8,30.04,WSW,252,5.0,6.0,57,0.00,,,0.03,Wunderground v.1.15,2013-02-04 18:12:00,
2013-02-04 13:13:00,41.1,26.6,30.04,WSW,245,5.0,10.0,56,0.00,,,0.03,Wunderground v.1.15,2013-02-04 18:13:00,
2013-02-04 13:15:00,41.2,26.7,30.04,SW,231,5.0,10.0,56,0.00,,,0.03,Wunderground v.1.15,2013-02-04 18:15:00,
2013-02-04 13:18:00,41.5,26.5,30.04,West,271,6.0,10.0,55,0.00,,,0.03,Wunderground v.1.15,2013-02-04 18:18:00,
2013-02-04 13:21:00,41.6,26.6,30.04,SW,222,6.0,9.0,55,0.00,,,0.03,Wunderground v.1.15,2013-02-04 18:21:00,
2013-02-04 13:24:00,41.8,25.9,30.04,West,260,7.0,10.0,53,0.00,,,0.03,Wunderground v.1.15,2013-02-04 18:24:00,
2013-02-04 13:25:00,41.8,26.4,30.04,WSW,245,8.0,10.0,54,0.00,,,0.03,Wunderground v.1.15,2013-02-04 18:25:00,
2013-02-04 13:28:00,42.0,26.5,30.04,West,261,7.0,10.0,54,0.00,,,0.03,Wunderground v.1.15,2013-02-04 18:28:00,
2013-02-04 13:30:00,42.1,26.2,30.04,WNW,295,7.0,10.0,53,0.00,,,0.03,Wunderground v.1.15,2013-02-04 18:30:00,
2013-02-04 13:31:00,42.2,26.3,30.04,WSW,241,7.0,12.0,53,0.00,,,0.03,Wunderground v.1.15,2013-02-04 18:31:00,
2013-02-04 13:33:00,42.3,25.9,30.04,WSW,242,7.0,12.0,52,0.00,,,0.03,Wunderground v.1.15,2013-02-04 18:33:00,
2013-02-04 13:34:00,42.4,26.0,30.04,WSW,249,7.0,12.0,52,0.00,,,0.03,Wunderground v.1.15,2013-02-04 18:34:00,
2013-02-04 13:37:00,42.4,26.0,30.03,SW,224,7.0,12.0,52,0.00,,,0.03,Wunderground v.1.15,2013-02-04 18:37:00,
2013-02-04 13:41:00,42.4,26.5,30.03,WSW,245,7.0,10.0,53,0.00,,,0.03,Wunderground v.1.15,2013-02-04 18:41:00,
2013-02-04 13:42:00,42.4,26.0,30.03,SSW,198,7.0,10.0,52,0.00,,,0.03,Wunderground v.1.15,2013-02-04 18:42:00,
2013-02-04 13:43:00,42.4,26.0,30.03,SW,234,7.0,11.0,52,0.00,,,0.03,Wunderground v.1.15,2013-02-04 18:43:00,
2013-02-04 13:45:00,42.3,25.9,30.03,WSW,242,7.0,13.0,52,0.00,,,0.03,Wunderground v.1.15,2013-02-04 18:45:00,
2013-02-04 13:47:00,42.3,25.9,30.03,West,273,8.0,13.0,52,0.00,,,0.03,Wunderground v.1.15,2013-02-04 18:47:00,
2013-02-04 13:52:00,42.3,26.4,30.02,SW,229,9.0,9.0,53,0.00,,,0.03,Wunderground v.1.15,2013-02-04 18:52:00,
2013-02-04 13:53:00,42.3,26.4,30.02,WSW,246,8.0,9.0,53,0.00,,,0.03,Wunderground v.1.15,2013-02-04 18:53:00,
2013-02-04 13:55:00,42.3,26.4,30.02,WSW,239,8.0,14.0,53,0.00,,,0.03,Wunderground v.1.15,2013-02-04 18:55:00,
2013-02-04 13:59:00,42.4,26.5,30.02,SSW,211,8.0,14.0,53,0.00,,,0.03,Wunderground v.1.15,2013-02-04 18:59:00,
2013-02-04 14:02:00,42.4,26.5,30.02,SW,232,8.0,9.0,53,0.00,,,0.03,Wunderground v.1.15,2013-02-04 19:02:00,
2013-02-04 14:04:00,42.3,27.3,30.02,SW,228,7.0,9.0,55,0.00,,,0.03,Wunderground v.1.15,2013-02-04 19:04:00,
2013-02-04 14:05:00,42.2,27.2,30.02,WSW,252,7.0,9.0,55,0.00,,,0.03,Wunderground v.1.15,2013-02-04 19:05:00,
2013-02-04 14:07:00,42.3,26.8,30.02,SW,232,6.0,9.0,54,0.00,,,0.03,Wunderground v.1.15,2013-02-04 19:07:00,
2013-02-04 14:08:00,42.3,26.8,30.01,West,280,6.0,9.0,54,0.00,,,0.03,Wunderground v.1.15,2013-02-04 19:08:00,
2013-02-04 14:11:00,42.4,26.9,30.01,WNW,300,5.0,9.0,54,0.00,,,0.03,Wunderground v.1.15,2013-02-04 19:11:00,
2013-02-04 14:12:00,42.4,26.9,30.01,WSW,242,5.0,9.0,54,0.00,,,0.03,Wunderground v.1.15,2013-02-04 19:12:00,
2013-02-04 14:16:00,42.5,27.0,30.01,West,271,6.0,9.0,54,0.00,,,0.04,Wunderground v.1.15,2013-02-04 19:16:00,
2013-02-04 14:17:00,42.6,27.1,30.01,West,279,6.0,9.0,54,0.00,,,0.04,Wunderground v.1.15,2013-02-04 19:17:00,
2013-02-04 14:19:00,42.7,27.2,30.01,SW,236,6.0,9.0,54,0.00,,,0.04,Wunderground v.1.15,2013-02-04 19:19:00,
2013-02-04 14:25:00,42.8,27.7,30.01,West,270,7.0,9.0,55,0.00,,,0.04,Wunderground v.1.15,2013-02-04 19:25:00,
2013-02-04 14:26:00,42.8,27.7,30.00,West,269,6.0,9.0,55,0.00,,,0.04,Wunderground v.1.15,2013-02-04 19:26:00,
2013-02-04 14:29:00,42.9,27.8,30.00,West,277,5.0,9.0,55,0.00,,,0.04,Wunderground v.1.15,2013-02-04 19:29:00,
2013-02-04 14:30:00,42.9,27.8,30.00,SW,229,5.0,11.0,55,0.00,,,0.04,Wunderground v.1.15,2013-02-04 19:30:00,
2013-02-04 14:31:00,43.0,27.9,30.00,WSW,245,5.0,12.0,55,0.00,,,0.04,Wunderground v.1.15,2013-02-04 19:31:00,
2013-02-04 14:34:00,43.1,27.6,30.00,SSW,209,6.0,12.0,54,0.00,,,0.04,Wunderground v.1.15,2013-02-04 19:34:00,
2013-02-04 14:35:00,43.1,28.0,30.00,West,263,7.0,12.0,55,0.00,,,0.04,Wunderground v.1.15,2013-02-04 19:35:00,
2013-02-04 14:37:00,43.1,28.0,30.00,WSW,238,7.0,12.0,55,0.00,,,0.04,Wunderground v.1.15,2013-02-04 19:37:00,
2013-02-04 14:41:00,43.2,28.1,30.00,WSW,253,8.0,8.0,55,0.00,,,0.04,Wunderground v.1.15,2013-02-04 19:41:00,
2013-02-04 14:42:00,43.2,28.1,30.00,SW,229,8.0,9.0,55,0.00,,,0.04,Wunderground v.1.15,2013-02-04 19:42:00,
2013-02-04 14:43:00,43.2,28.1,30.00,WSW,250,8.0,9.0,55,0.00,,,0.04,Wunderground v.1.15,2013-02-04 19:43:00,
2013-02-04 14:44:00,43.2,28.5,30.00,WNW,292,8.0,9.0,56,0.00,,,0.04,Wunderground v.1.15,2013-02-04 19:44:00,
2013-02-04 14:48:00,43.3,28.2,30.00,WSW,240,8.0,11.0,55,0.00,,,0.04,Wunderground v.1.15,2013-02-04 19:48:00,
2013-02-04 14:49:00,43.3,28.2,30.00,WSW,255,8.0,11.0,55,0.00,,,0.04,Wunderground v.1.15,2013-02-04 19:49:00,
2013-02-04 14:51:00,43.4,28.7,30.00,WSW,243,7.0,7.0,56,0.00,,,0.04,Wunderground v.1.15,2013-02-04 19:51:00,
2013-02-04 14:53:00,43.4,28.7,30.00,WNW,293,7.0,9.0,56,0.00,,,0.04,Wunderground v.1.15,2013-02-04 19:53:00,
2013-02-04 14:56:00,43.4,28.7,30.00,WSW,250,7.0,14.0,56,0.00,,,0.04,Wunderground v.1.15,2013-02-04 19:56:00,
2013-02-04 14:57:00,43.5,28.8,30.00,West,270,6.0,14.0,56,0.00,,,0.04,Wunderground v.1.15,2013-02-04 19:57:00,
2013-02-04 14:59:00,43.6,29.4,30.00,West,260,5.0,14.0,57,0.00,,,0.04,Wunderground v.1.15,2013-02-04 19:59:00,
2013-02-04 15:03:00,43.7,29.0,30.00,WNW,285,7.0,9.0,56,0.00,,,0.04,Wunderground v.1.15,2013-02-04 20:03:00,
2013-02-04 15:04:00,43.7,29.0,30.00,West,279,7.0,9.0,56,0.00,,,0.04,Wunderground v.1.15,2013-02-04 20:04:00,
2013-02-04 15:05:00,43.8,29.1,30.00,WSW,239,7.0,10.0,56,0.00,,,0.04,Wunderground v.1.15,2013-02-04 20:05:00,
2013-02-04 15:06:00,43.8,29.5,30.00,WSW,243,7.0,10.0,57,0.00,,,0.04,Wunderground v.1.15,2013-02-04 20:06:00,
2013-02-04 15:09:00,43.9,29.2,29.99,NW,308,8.0,12.0,56,0.00,,,0.04,Wunderground v.1.15,2013-02-04 20:09:00,
2013-02-04 15:11:00,44.0,29.3,29.99,WNW,283,8.0,11.0,56,0.00,,,0.04,Wunderground v.1.15,2013-02-04 20:11:00,
2013-02-04 15:12:00,44.0,29.3,29.99,West,267,8.0,11.0,56,0.00,,,0.04,Wunderground v.1.15,2013-02-04 20:12:00,
2013-02-04 15:16:00,44.2,29.9,29.99,West,266,7.0,11.0,57,0.00,,,0.04,Wunderground v.1.15,2013-02-04 20:16:00,
2013-02-04 15:17:00,44.2,29.9,29.99,West,263,8.0,11.0,57,0.00,,,0.04,Wunderground v.1.15,2013-02-04 20:17:00,
2013-02-04 15:18:00,44.2,29.9,29.99,WNW,302,7.0,11.0,57,0.00,,,0.04,Wunderground v.1.15,2013-02-04 20:18:00,
2013-02-04 15:21:00,44.3,30.0,29.99,WNW,299,7.0,7.0,57,0.00,,,0.04,Wunderground v.1.15,2013-02-04 20:21:00,
2013-02-04 15:22:00,44.3,30.0,29.99,WNW,291,7.0,9.0,57,0.00,,,0.04,Wunderground v.1.15,2013-02-04 20:22:00,
2013-02-04 15:23:00,44.4,30.1,29.99,WSW,240,6.0,9.0,57,0.00,,,0.04,Wunderground v.1.15,2013-02-04 20:23:00,
2013-02-04 15:26:00,44.6,30.3,29.99,West,266,6.0,9.0,57,0.00,,,0.04,Wunderground v.1.15,2013-02-04 20:26:00,
2013-02-04 15:27:00,44.6,30.3,29.99,WNW,292,5.0,9.0,57,0.00,,,0.04,Wunderground v.1.15,2013-02-04 20:27:00,
2013-02-04 15:28:00,44.8,30.5,29.99,WSW,237,5.0,10.0,57,0.00,,,0.04,Wunderground v.1.15,2013-02-04 20:28:00,
2013-02-04 15:33:00,45.1,30.3,29.98,WSW,250,5.0,9.0,56,0.00,,,0.04,Wunderground v.1.15,2013-02-04 20:33:00,
2013-02-04 15:34:00,45.1,30.8,29.98,WSW,256,5.0,9.0,57,0.00,,,0.04,Wunderground v.1.15,2013-02-04 20:34:00,
2013-02-04 15:36:00,45.2,30.9,29.98,WNW,284,5.0,10.0,57,0.00,,,0.04,Wunderground v.1.15,2013-02-04 20:36:00,
2013-02-04 15:38:00,45.4,30.6,29.98,West,275,5.0,10.0,56,0.00,,,0.04,Wunderground v.1.15,2013-02-04 20:38:00,
2013-02-04 15:43:00,45.5,30.7,29.98,WSW,257,5.0,9.0,56,0.00,,,0.04,Wunderground v.1.15,2013-02-04 20:43:00,
2013-02-04 15:44:00,45.6,30.8,29.98,WSW,254,5.0,9.0,56,0.00,,,0.04,Wunderground v.1.15,2013-02-04 20:44:00,
2013-02-04 15:46:00,45.7,30.9,29.98,WSW,252,5.0,9.0,56,0.00,,,0.04,Wunderground v.1.15,2013-02-04 20:46:00,
2013-02-04 15:49:00,45.8,31.0,29.98,WSW,250,5.0,9.0,56,0.00,,,0.04,Wunderground v.1.15,2013-02-04 20:49:00,
2013-02-04 15:50:00,45.8,31.4,29.98,WSW,257,5.0,9.0,57,0.00,,,0.04,Wunderground v.1.15,2013-02-04 20:50:00,
2013-02-04 15:53:00,46.0,31.6,29.98,WNW,290,5.0,9.0,57,0.00,,,0.04,Wunderground v.1.15,2013-02-04 20:53:00,
2013-02-04 15:55:00,46.0,31.2,29.98,WSW,254,5.0,9.0,56,0.00,,,0.04,Wunderground v.1.15,2013-02-04 20:55:00,
2013-02-04 15:57:00,46.2,31.8,29.99,SW,232,5.0,9.0,57,0.00,,,0.04,Wunderground v.1.15,2013-02-04 20:57:00,
2013-02-04 16:01:00,46.4,31.5,29.99,SW,223,4.0,9.0,56,0.00,,,0.04,Wunderground v.1.15,2013-02-04 21:01:00,
2013-02-04 16:02:00,46.6,31.7,29.99,WSW,258,4.0,9.0,56,0.00,,,0.04,Wunderground v.1.15,2013-02-04 21:02:00,
2013-02-04 16:07:00,46.9,31.6,29.99,West,274,5.0,9.0,55,0.00,,,0.04,Wunderground v.1.15,2013-02-04 21:07:00,
2013-02-04 16:08:00,47.0,31.7,29.99,West,275,5.0,9.0,55,0.00,,,0.04,Wunderground v.1.15,2013-02-04 21:08:00,
2013-02-04 16:09:00,47.0,31.7,29.99,WNW,283,5.0,9.0,55,0.00,,,0.04,Wunderground v.1.15,2013-02-04 21:09:00,
2013-02-04 16:10:00,47.0,31.7,29.99,West,277,5.0,9.0,55,0.00,,,0.04,Wunderground v.1.15,2013-02-04 21:10:00,
2013-02-04 16:14:00,47.1,32.2,29.99,NW,304,5.0,9.0,56,0.00,,,0.04,Wunderground v.1.15,2013-02-04 21:14:00,
2013-02-04 16:16:00,47.1,32.2,29.99,WSW,254,5.0,9.0,56,0.00,,,0.04,Wunderground v.1.15,2013-02-04 21:16:00,
2013-02-04 16:19:00,46.9,32.0,29.98,WNW,282,3.0,9.0,56,0.00,,,0.04,Wunderground v.1.15,2013-02-04 21:19:00,
2013-02-04 16:20:00,46.9,32.0,29.98,WSW,249,3.0,9.0,56,0.00,,,0.04,Wunderground v.1.15,2013-02-04 21:20:00,
2013-02-04 16:21:00,47.0,32.1,29.98,WSW,247,3.0,3.0,56,0.00,,,0.04,Wunderground v.1.15,2013-02-04 21:21:00,
2013-02-04 16:25:00,47.2,32.3,29.98,WNW,284,3.0,9.0,56,0.00,,,0.04,Wunderground v.1.15,2013-02-04 21:25:00,
2013-02-04 16:26:00,47.2,32.3,29.98,SW,227,3.0,9.0,56,0.00,,,0.04,Wunderground v.1.15,2013-02-04 21:26:00,
2013-02-04 16:31:00,47.3,31.9,29.98,West,279,4.0,4.0,55,0.00,,,0.04,Wunderground v.1.15,2013-02-04 21:31:00,
2013-02-04 16:32:00,47.3,32.4,29.98,WNW,288,4.0,9.0,56,0.00,,,0.04,Wunderground v.1.15,2013-02-04 21:32:00,
2013-02-04 16:36:00,47.4,31.6,29.98,WNW,283,4.0,9.0,54,0.00,,,0.04,Wunderground v.1.15,2013-02-04 21:36:00,
2013-02-04 16:37:00,47.4,31.6,29.98,WSW,252,4.0,9.0,54,0.00,,,0.04,Wunderground v.1.15,2013-02-04 21:37:00,
2013-02-04 16:39:00,47.5,32.1,29.98,WNW,296,5.0,9.0,55,0.00,,,0.04,Wunderground v.1.15,2013-02-04 21:39:00,
2013-02-04 16:42:00,47.4,32.0,29.98,WNW,302,5.0,9.0,55,0.00,,,0.04,Wunderground v.1.15,2013-02-04 21:42:00,
2013-02-04 16:43:00,47.4,32.0,29.98,West,264,4.0,9.0,55,0.00,,,0.04,Wunderground v.1.15,2013-02-04 21:43:00,
2013-02-04 16:46:00,47.3,31.9,29.98,West,277,4.0,11.0,55,0.00,,,0.04,Wunderground v.1.15,2013-02-04 21:46:00,
2013-02-04 16:48:00,47.4,32.0,29.98,WSW,257,4.0,11.0,55,0.00,,,0.04,Wunderground v.1.15,2013-02-04 21:48:00,
2013-02-04 16:49:00,47.4,32.0,29.98,West,272,4.0,11.0,55,0.00,,,0.04,Wunderground v.1.15,2013-02-04 21:49:00,
2013-02-04 16:53:00,47.6,31.8,29.98,WSW,253,5.0,9.0,54,0.00,,,0.04,Wunderground v.1.15,2013-02-04 21:53:00,
2013-02-04 16:54:00,47.7,31.9,29.98,WNW,285,5.0,9.0,54,0.00,,,0.04,Wunderground v.1.15,2013-02-04 21:54:00,
2013-02-04 16:55:00,47.7,32.3,29.98,West,267,6.0,9.0,55,0.00,,,0.04,Wunderground v.1.15,2013-02-04 21:55:00,
2013-02-04 16:56:00,47.7,32.3,29.98,WNW,290,6.0,9.0,55,0.00,,,0.04,Wunderground v.1.15,2013-02-04 21:56:00,
2013-02-04 17:01:00,47.4,32.0,29.98,WSW,256,5.0,10.0,55,0.00,,,0.04,Wunderground v.1.15,2013-02-04 22:01:00,
2013-02-04 17:02:00,47.6,32.2,29.98,WNW,301,5.0,10.0,55,0.00,,,0.04,Wunderground v.1.15,2013-02-04 22:02:00,
2013-02-04 17:03:00,47.6,32.2,29.98,West,278,5.0,10.0,55,0.00,,,0.04,Wunderground v.1.15,2013-02-04 22:03:00,
2013-02-04 17:09:00,47.8,32.4,29.98,NW,305,6.0,10.0,55,0.00,,,0.04,Wunderground v.1.15,2013-02-04 22:09:00,
2013-02-04 17:11:00,47.8,31.9,29.98,WNW,294,6.0,9.0,54,0.00,,,0.04,Wunderground v.1.15,2013-02-04 22:11:00,
2013-02-04 17:12:00,47.8,31.9,29.98,West,277,6.0,9.0,54,0.00,,,0.04,Wunderground v.1.15,2013-02-04 22:12:00,
2013-02-04 17:13:00,47.8,32.4,29.98,West,267,6.0,9.0,55,0.00,,,0.04,Wunderground v.1.15,2013-02-04 22:13:00,
2013-02-04 17:16:00,47.7,32.3,29.99,WNW,301,6.0,9.0,55,0.00,,,0.04,Wunderground v.1.15,2013-02-04 22:16:00,
2013-02-04 17:17:00,47.6,32.7,29.99,WNW,298,6.0,10.0,56,0.00,,,0.04,Wunderground v.1.15,2013-02-04 22:17:00,
2013-02-04 17:18:00,47.6,32.2,29.99,WNW,303,5.0,10.0,55,0.00,,,0.04,Wunderground v.1.15,2013-02-04 22:18:00,
2013-02-04 17:23:00,47.6,32.7,29.98,West,271,5.0,9.0,56,0.00,,,0.04,Wunderground v.1.15,2013-02-04 22:23:00,
2013-02-04 17:25:00,47.7,32.3,29.98,West,281,5.0,9.0,55,0.00,,,0.04,Wunderground v.1.15,2013-02-04 22:25:00,
2013-02-04 17:30:00,47.7,32.8,29.98,West,273,4.0,9.0,56,0.00,,,0.04,Wunderground v.1.15,2013-02-04 22:30:00,
2013-02-04 17:31:00,47.7,32.3,29.98,NW,310,4.0,9.0,55,0.00,,,0.04,Wunderground v.1.15,2013-02-04 22:31:00,
2013-02-04 17:32:00,47.7,32.8,29.98,NW,306,4.0,9.0,56,0.00,,,0.04,Wunderground v.1.15,2013-02-04 22:32:00,
2013-02-04 17:35:00,47.6,32.7,29.98,NW,307,4.0,9.0,56,0.00,,,0.04,Wunderground v.1.15,2013-02-04 22:35:00,
2013-02-04 17:38:00,47.5,33.0,29.99,WNW,296,4.0,9.0,57,0.00,,,0.04,Wunderground v.1.15,2013-02-04 22:38:00,
2013-02-04 17:39:00,47.5,32.6,29.99,WNW,282,4.0,9.0,56,0.00,,,0.04,Wunderground v.1.15,2013-02-04 22:39:00,
2013-02-04 17:40:00,47.6,32.7,29.99,WNW,296,4.0,9.0,56,0.00,,,0.04,Wunderground v.1.15,2013-02-04 22:40:00,
2013-02-04 17:43:00,47.6,32.7,29.99,WNW,296,5.0,9.0,56,0.00,,,0.04,Wunderground v.1.15,2013-02-04 22:43:00,
2013-02-04 17:44:00,47.6,32.7,29.99,West,263,5.0,11.0,56,0.00,,,0.04,Wunderground v.1.15,2013-02-04 22:44:00,
2013-02-04 17:49:00,47.5,33.0,29.99,WNW,283,5.0,11.0,57,0.00,,,0.04,Wunderground v.1.15,2013-02-04 22:49:00,
2013-02-04 17:50:00,47.5,33.0,29.99,West,263,5.0,11.0,57,0.00,,,0.04,Wunderground v.1.15,2013-02-04 22:50:00,
2013-02-04 17:51:00,47.4,32.9,29.99,WNW,289,5.0,5.0,57,0.00,,,0.04,Wunderground v.1.15,2013-02-04 22:51:00,
2013-02-04 17:54:00,47.4,32.5,29.99,West,269,4.0,9.0,56,0.00,,,0.04,Wunderground v.1.15,2013-02-04 22:54:00,
2013-02-04 17:55:00,47.3,32.8,29.99,WNW,289,3.0,9.0,57,0.00,,,0.04,Wunderground v.1.15,2013-02-04 22:55:00,
2013-02-04 18:01:00,47.2,32.7,30.00,NW,306,4.0,9.0,57,0.00,,,0.04,Wunderground v.1.15,2013-02-04 23:01:00,
2013-02-04 18:02:00,47.1,33.1,29.99,WNW,297,4.0,9.0,58,0.00,,,0.04,Wunderground v.1.15,2013-02-04 23:02:00,
2013-02-04 18:03:00,47.0,33.0,29.99,West,281,5.0,9.0,58,0.00,,,0.04,Wunderground v.1.15,2013-02-04 23:03:00,
2013-02-04 18:07:00,46.8,33.2,29.99,WNW,285,6.0,11.0,59,0.00,,,0.04,Wunderground v.1.15,2013-02-04 23:07:00,
2013-02-04 18:10:00,46.6,33.4,29.99,West,279,8.0,11.0,60,0.00,,,0.04,Wunderground v.1.15,2013-02-04 23:10:00,
2013-02-04 18:11:00,46.5,33.4,29.99,West,279,9.0,9.0,60,0.00,,,0.04,Wunderground v.1.15,2013-02-04 23:11:00,
2013-02-04 18:15:00,46.4,34.1,29.99,West,279,9.0,10.0,62,0.00,,,0.04,Wunderground v.1.15,2013-02-04 23:15:00,
2013-02-04 18:16:00,46.3,34.0,29.99,NW,317,9.0,11.0,62,0.00,,,0.04,Wunderground v.1.15,2013-02-04 23:16:00,
2013-02-04 18:20:00,46.0,34.1,29.99,WNW,290,8.0,11.0,63,0.00,,,0.04,Wunderground v.1.15,2013-02-04 23:20:00,
2013-02-04 18:21:00,46.1,34.2,29.99,NW,321,8.0,8.0,63,0.00,,,0.04,Wunderground v.1.15,2013-02-04 23:21:00,
2013-02-04 18:22:00,46.1,34.2,29.99,WNW,302,7.0,9.0,63,0.00,,,0.04,Wunderground v.1.15,2013-02-04 23:22:00,
2013-02-04 18:27:00,45.9,34.4,29.99,WNW,302,6.0,9.0,64,0.00,,,0.04,Wunderground v.1.15,2013-02-04 23:27:00,
2013-02-04 18:29:00,45.9,34.4,30.00,NW,313,6.0,9.0,64,0.00,,,0.04,Wunderground v.1.15,2013-02-04 23:29:00,
2013-02-04 18:30:00,45.8,34.7,30.00,NNW,327,6.0,9.0,65,0.00,,,0.04,Wunderground v.1.15,2013-02-04 23:30:00,
2013-02-04 18:32:00,45.7,34.6,30.00,NW,320,5.0,9.0,65,0.00,,,0.04,Wunderground v.1.15,2013-02-04 23:32:00,
2013-02-04 18:34:00,45.5,34.4,30.00,NW,312,6.0,9.0,65,0.00,,,0.04,Wunderground v.1.15,2013-02-04 23:34:00,
2013-02-04 18:35:00,45.5,34.8,30.00,WSW,237,5.0,9.0,66,0.00,,,0.04,Wunderground v.1.15,2013-02-04 23:35:00,
2013-02-04 18:39:00,45.6,34.1,30.00,WNW,297,6.0,9.0,64,0.00,,,0.04,Wunderground v.1.15,2013-02-04 23:39:00,
2013-02-04 18:40:00,45.6,34.5,30.00,NW,307,6.0,9.0,65,0.00,,,0.04,Wunderground v.1.15,2013-02-04 23:40:00,
2013-02-04 18:42:00,45.7,34.2,30.01,WNW,296,6.0,9.0,64,0.00,,,0.04,Wunderground v.1.15,2013-02-04 23:42:00,
2013-02-04 18:43:00,45.7,34.2,30.00,WNW,296,6.0,9.0,64,0.00,,,0.04,Wunderground v.1.15,2013-02-04 23:43:00,
2013-02-04 18:44:00,45.6,34.5,30.00,NW,318,6.0,9.0,65,0.00,,,0.04,Wunderground v.1.15,2013-02-04 23:44:00,
2013-02-04 18:47:00,45.5,34.4,30.00,WNW,300,7.0,13.0,65,0.00,,,0.04,Wunderground v.1.15,2013-02-04 23:47:00,
2013-02-04 18:48:00,45.4,34.7,30.00,NW,311,7.0,13.0,66,0.00,,,0.04,Wunderground v.1.15,2013-02-04 23:48:00,
2013-02-04 18:51:00,45.3,34.6,30.00,NW,306,7.0,9.0,66,0.00,,,0.04,Wunderground v.1.15,2013-02-04 23:51:00,
2013-02-04 18:53:00,45.2,34.5,30.00,NW,326,6.0,9.0,66,0.00,,,0.04,Wunderground v.1.15,2013-02-04 23:53:00,
2013-02-04 18:55:00,45.3,34.6,30.00,NW,316,6.0,9.0,66,0.00,,,0.04,Wunderground v.1.15,2013-02-04 23:55:00,
2013-02-04 18:57:00,45.4,34.3,30.01,NW,323,6.0,9.0,65,0.00,,,0.04,Wunderground v.1.15,2013-02-04 23:57:00,
2013-02-04 18:59:00,45.4,34.3,30.00,NW,310,6.0,10.0,65,0.00,,,0.04,Wunderground v.1.15,2013-02-04 23:59:00,
2013-02-04 19:03:00,45.3,34.2,30.01,WNW,298,6.0,9.0,65,0.00,,,0.04,Wunderground v.1.15,2013-02-05 00:03:00,
2013-02-04 19:04:00,45.3,34.6,30.01,NW,316,6.0,9.0,66,0.00,,,0.04,Wunderground v.1.15,2013-02-05 00:04:00,
2013-02-04 19:05:00,45.3,34.6,30.01,WNW,295,6.0,9.0,66,0.00,,,0.04,Wunderground v.1.15,2013-02-05 00:05:00,
2013-02-04 19:08:00,45.4,34.7,30.01,WNW,285,6.0,10.0,66,0.00,,,0.04,Wunderground v.1.15,2013-02-05 00:08:00,
2013-02-04 19:09:00,45.4,34.7,30.01,WNW,294,6.0,17.0,66,0.00,,,0.04,Wunderground v.1.15,2013-02-05 00:09:00,
2013-02-04 19:11:00,45.7,34.6,30.01,NW,315,8.0,10.0,65,0.00,,,0.04,Wunderground v.1.15,2013-02-05 00:11:00,
2013-02-04 19:13:00,45.8,34.7,30.01,WNW,284,8.0,10.0,65,0.00,,,0.04,Wunderground v.1.15,2013-02-05 00:13:00,
2013-02-04 19:14:00,45.8,34.7,30.01,NW,324,8.0,10.0,65,0.00,,,0.04,Wunderground v.1.15,2013-02-05 00:14:00,
2013-02-04 19:17:00,45.6,34.9,30.01,NW,310,9.0,10.0,66,0.00,,,0.04,Wunderground v.1.15,2013-02-05 00:17:00,
2013-02-04 19:18:00,45.7,35.0,30.01,WNW,292,9.0,10.0,66,0.00,,,0.04,Wunderground v.1.15,2013-02-05 00:18:00,
2013-02-04 19:22:00,45.8,35.1,30.01,WNW,290,9.0,13.0,66,0.00,,,0.04,Wunderground v.1.15,2013-02-05 00:22:00,
2013-02-04 19:23:00,45.8,35.1,30.01,West,279,10.0,18.0,66,0.00,,,0.04,Wunderground v.1.15,2013-02-05 00:23:00,
2013-02-04 19:27:00,45.4,35.5,30.01,WNW,299,11.0,18.0,68,0.00,,,0.04,Wunderground v.1.15,2013-02-05 00:27:00,
2013-02-04 19:29:00,45.2,36.0,30.01,West,280,11.0,18.0,70,0.00,,,0.04,Wunderground v.1.15,2013-02-05 00:29:00,
2013-02-04 19:32:00,44.9,36.1,30.01,WNW,301,11.0,13.0,71,0.00,,,0.04,Wunderground v.1.15,2013-02-05 00:32:00,
2013-02-04 19:33:00,44.7,35.9,30.01,WNW,303,10.0,13.0,71,0.00,,,0.04,Wunderground v.1.15,2013-02-05 00:33:00,
2013-02-04 19:34:00,44.7,36.2,30.01,WSW,248,10.0,13.0,72,0.00,,,0.04,Wunderground v.1.15,2013-02-05 00:34:00,
2013-02-04 19:35:00,44.7,36.6,30.01,NW,306,10.0,13.0,73,0.00,,,0.04,Wunderground v.1.15,2013-02-05 00:35:00,
2013-02-04 19:38:00,44.4,37.0,30.01,WNW,287,9.0,13.0,75,0.00,,,0.04,Wunderground v.1.15,2013-02-05 00:38:00,
2013-02-04 19:41:00,44.1,37.0,30.01,West,275,9.0,9.0,76,0.00,,,0.04,Wunderground v.1.15,2013-02-05 00:41:00,
2013-02-04 19:44:00,43.9,37.2,30.01,NW,309,8.0,11.0,77,0.00,,,0.05,Wunderground v.1.15,2013-02-05 00:44:00,
2013-02-04 19:45:00,43.8,37.4,30.01,WSW,257,8.0,11.0,78,0.00,,,0.05,Wunderground v.1.15,2013-02-05 00:45:00,
2013-02-04 19:46:00,43.7,37.6,30.01,West,277,8.0,11.0,79,0.00,,,0.05,Wunderground v.1.15,2013-02-05 00:46:00,
2013-02-04 19:49:00,43.4,37.6,30.01,WNW,289,7.0,11.0,80,0.00,,,0.05,Wunderground v.1.15,2013-02-05 00:49:00,
2013-02-04 19:51:00,43.3,37.5,30.01,NW,323,7.0,7.0,80,0.00,,,0.05,Wunderground v.1.15,2013-02-05 00:51:00,
2013-02-04 19:52:00,43.2,37.8,30.01,WNW,293,7.0,9.0,81,0.00,,,0.05,Wunderground v.1.15,2013-02-05 00:52:00,
2013-02-04 19:56:00,43.1,38.0,30.01,WNW,282,7.0,9.0,82,0.00,,,0.05,Wunderground v.1.15,2013-02-05 00:56:00,
2013-02-04 19:57:00,43.1,38.0,30.01,WNW,292,7.0,9.0,82,0.00,,,0.05,Wunderground v.1.15,2013-02-05 00:57:00,
2013-02-04 19:58:00,43.0,38.2,30.01,West,261,7.0,11.0,83,0.00,,,0.05,Wunderground v.1.15,2013-02-05 00:58:00,
2013-02-04 20:01:00,42.9,38.1,30.01,NW,309,7.0,7.0,83,0.04,,,0.06,Wunderground v.1.15,2013-02-05 01:01:00,
2013-02-04 20:04:00,42.7,38.2,30.02,WNW,301,6.0,9.0,84,0.04,,,0.06,Wunderground v.1.15,2013-02-05 01:04:00,
2013-02-04 20:07:00,42.5,38.3,30.01,West,271,5.0,9.0,85,0.04,,,0.06,Wunderground v.1.15,2013-02-05 01:07:00,
2013-02-04 20:09:00,42.5,38.3,30.01,NW,310,5.0,9.0,85,0.04,,,0.06,Wunderground v.1.15,2013-02-05 01:09:00,
2013-02-04 20:10:00,42.4,38.2,30.01,NW,304,5.0,9.0,85,0.04,,,0.06,Wunderground v.1.15,2013-02-05 01:10:00,
2013-02-04 20:13:00,42.2,38.6,30.01,WNW,294,4.0,9.0,87,0.04,,,0.06,Wunderground v.1.15,2013-02-05 01:13:00,
2013-02-04 20:14:00,42.2,38.6,30.01,WNW,283,4.0,9.0,87,0.04,,,0.06,Wunderground v.1.15,2013-02-05 01:14:00,
2013-02-04 20:16:00,42.1,38.5,30.01,WNW,291,4.0,9.0,87,0.04,,,0.07,Wunderground v.1.15,2013-02-05 01:16:00,
2013-02-04 20:17:00,42.1,38.5,30.01,WNW,285,4.0,9.0,87,0.04,,,0.07,Wunderground v.1.15,2013-02-05 01:17:00,
2013-02-04 20:20:00,42.0,38.7,30.01,West,262,4.0,9.0,88,0.04,,,0.07,Wunderground v.1.15,2013-02-05 01:20:00,
2013-02-04 20:22:00,41.9,38.6,30.02,WNW,294,4.0,9.0,88,0.04,,,0.07,Wunderground v.1.15,2013-02-05 01:22:00,
2013-02-04 20:26:00,41.9,38.9,30.02,West,267,5.0,9.0,89,0.05,,,0.07,Wunderground v.1.15,2013-02-05 01:26:00,
2013-02-04 20:27:00,41.9,38.9,30.02,West,259,5.0,9.0,89,0.05,,,0.08,Wunderground v.1.15,2013-02-05 01:27:00,
2013-02-04 20:30:00,41.7,39.0,30.01,West,273,5.0,9.0,90,0.05,,,0.08,Wunderground v.1.15,2013-02-05 01:30:00,
2013-02-04 20:32:00,41.7,39.0,30.02,West,270,4.0,9.0,90,0.05,,,0.08,Wunderground v.1.15,2013-02-05 01:32:00,
2013-02-04 20:35:00,41.6,39.2,30.01,WSW,250,3.0,9.0,91,0.05,,,0.08,Wunderground v.1.15,2013-02-05 01:35:00,
2013-02-04 20:36:00,41.5,39.1,30.01,WSW,240,3.0,9.0,91,0.05,,,0.08,Wunderground v.1.15,2013-02-05 01:36:00,
2013-02-04 20:37:00,41.6,39.2,30.01,West,264,3.0,9.0,91,0.05,,,0.08,Wunderground v.1.15,2013-02-05 01:37:00,
2013-02-04 20:38:00,41.6,39.2,30.01,WSW,257,4.0,9.0,91,0.05,,,0.08,Wunderground v.1.15,2013-02-05 01:38:00,
2013-02-04 20:42:00,41.6,39.4,30.01,West,279,4.0,9.0,92,0.04,,,0.08,Wunderground v.1.15,2013-02-05 01:42:00,
2013-02-04 20:43:00,41.6,39.4,30.01,West,277,5.0,9.0,92,0.00,,,0.08,Wunderground v.1.15,2013-02-05 01:43:00,
2013-02-04 20:46:00,41.6,39.4,30.01,WSW,241,5.0,9.0,92,0.00,,,0.09,Wunderground v.1.15,2013-02-05 01:46:00,
2013-02-04 20:47:00,41.6,39.4,30.01,West,259,6.0,9.0,92,0.00,,,0.09,Wunderground v.1.15,2013-02-05 01:47:00,
2013-02-04 20:49:00,41.6,39.4,30.01,West,275,5.0,9.0,92,0.00,,,0.09,Wunderground v.1.15,2013-02-05 01:49:00,
2013-02-04 20:51:00,41.7,39.5,30.01,SW,234,6.0,9.0,92,0.00,,,0.09,Wunderground v.1.15,2013-02-05 01:51:00,
2013-02-04 20:52:00,41.6,39.4,30.01,WNW,286,6.0,9.0,92,0.00,,,0.09,Wunderground v.1.15,2013-02-05 01:52:00,
2013-02-04 20:54:00,41.6,39.7,30.01,West,266,6.0,10.0,93,0.00,,,0.09,Wunderground v.1.15,2013-02-05 01:54:00,
2013-02-04 20:56:00,41.6,39.7,30.01,West,266,6.0,10.0,93,0.06,,,0.10,Wunderground v.1.15,2013-02-05 01:56:00,
2013-02-04 20:57:00,41.5,39.6,30.01,WSW,237,6.0,10.0,93,0.06,,,0.10,Wunderground v.1.15,2013-02-05 01:57:00,
2013-02-04 20:58:00,41.5,39.6,30.01,West,267,6.0,10.0,93,0.06,,,0.10,Wunderground v.1.15,2013-02-05 01:58:00,
2013-02-04 21:01:00,41.5,39.6,30.01,West,271,6.0,9.0,93,0.06,,,0.10,Wunderground v.1.15,2013-02-05 02:01:00,
2013-02-04 21:02:00,41.6,39.7,30.01,SW,233,6.0,9.0,93,0.06,,,0.10,Wunderground v.1.15,2013-02-05 02:02:00,
2013-02-04 21:05:00,41.6,39.7,30.01,West,273,6.0,9.0,93,0.06,,,0.10,Wunderground v.1.15,2013-02-05 02:05:00,
2013-02-04 21:09:00,41.6,39.7,30.01,SW,236,6.0,9.0,93,0.05,,,0.10,Wunderground v.1.15,2013-02-05 02:09:00,
2013-02-04 21:10:00,41.5,39.6,30.01,WSW,255,6.0,9.0,93,0.04,,,0.10,Wunderground v.1.15,2013-02-05 02:10:00,
2013-02-04 21:12:00,41.5,39.6,30.01,West,266,6.0,7.0,93,0.04,,,0.10,Wunderground v.1.15,2013-02-05 02:12:00,
2013-02-04 21:13:00,41.5,39.6,30.01,West,269,6.0,9.0,93,0.00,,,0.10,Wunderground v.1.15,2013-02-05 02:13:00,
2013-02-04 21:17:00,41.5,39.9,30.01,WNW,288,6.0,9.0,94,0.00,,,0.10,Wunderground v.1.15,2013-02-05 02:17:00,
2013-02-04 21:19:00,41.5,39.9,30.01,West,280,6.0,12.0,94,0.00,,,0.10,Wunderground v.1.15,2013-02-05 02:19:00,
2013-02-04 21:20:00,41.6,40.0,30.01,West,269,6.0,12.0,94,0.00,,,0.10,Wunderground v.1.15,2013-02-05 02:20:00,
2013-02-04 21:22:00,41.6,40.0,30.00,NW,317,6.0,9.0,94,0.00,,,0.10,Wunderground v.1.15,2013-02-05 02:22:00,
2013-02-04 21:26:00,41.5,39.9,30.01,West,272,6.0,10.0,94,0.00,,,0.10,Wunderground v.1.15,2013-02-05 02:26:00,
2013-02-04 21:27:00,41.5,39.9,30.01,WNW,296,6.0,10.0,94,0.00,,,0.10,Wunderground v.1.15,2013-02-05 02:27:00,
2013-02-04 21:28:00,41.6,40.0,30.01,WNW,294,6.0,10.0,94,0.00,,,0.10,Wunderground v.1.15,2013-02-05 02:28:00,
2013-02-04 21:32:00,41.6,40.0,30.01,WNW,300,6.0,9.0,94,0.00,,,0.10,Wunderground v.1.15,2013-02-05 02:32:00,
2013-02-04 21:33:00,41.7,40.1,30.01,West,279,6.0,9.0,94,0.00,,,0.10,Wunderground v.1.15,2013-02-05 02:33:00,
2013-02-04 21:34:00,41.7,40.1,30.01,West,259,6.0,9.0,94,0.00,,,0.10,Wunderground v.1.15,2013-02-05 02:34:00,
2013-02-04 21:39:00,41.7,40.1,30.01,NW,315,7.0,12.0,94,0.00,,,0.11,Wunderground v.1.15,2013-02-05 02:39:00,
2013-02-04 21:40:00,41.7,40.1,30.01,WNW,296,7.0,12.0,94,0.00,,,0.11,Wunderground v.1.15,2013-02-05 02:40:00,
2013-02-04 21:41:00,41.7,40.1,30.01,WNW,283,7.0,7.0,94,0.00,,,0.11,Wunderground v.1.15,2013-02-05 02:41:00,
2013-02-04 21:42:00,41.7,40.1,30.01,WNW,284,7.0,9.0,94,0.00,,,0.11,Wunderground v.1.15,2013-02-05 02:42:00,
2013-02-04 21:46:00,41.8,40.2,30.01,WNW,291,7.0,11.0,94,0.00,,,0.11,Wunderground v.1.15,2013-02-05 02:46:00,
2013-02-04 21:47:00,41.8,40.2,30.01,WNW,285,7.0,11.0,94,0.00,,,0.11,Wunderground v.1.15,2013-02-05 02:47:00,
2013-02-04 21:48:00,41.8,40.2,30.01,WNW,285,7.0,11.0,94,0.00,,,0.11,Wunderground v.1.15,2013-02-05 02:48:00,
2013-02-04 21:49:00,41.8,40.2,30.01,WNW,283,7.0,11.0,94,0.00,,,0.11,Wunderground v.1.15,2013-02-05 02:49:00,
2013-02-04 21:53:00,41.8,40.2,30.01,WNW,299,7.0,9.0,94,0.00,,,0.11,Wunderground v.1.15,2013-02-05 02:53:00,
2013-02-04 21:54:00,41.8,40.2,30.01,NW,307,7.0,10.0,94,0.00,,,0.11,Wunderground v.1.15,2013-02-05 02:54:00,
2013-02-04 21:56:00,41.8,40.2,30.01,WNW,284,6.0,12.0,94,0.00,,,0.11,Wunderground v.1.15,2013-02-05 02:56:00,
2013-02-04 21:59:00,41.9,40.3,30.01,NW,308,7.0,12.0,94,0.00,,,0.11,Wunderground v.1.15,2013-02-05 02:59:00,
2013-02-04 22:03:00,42.0,40.4,30.01,WNW,282,6.0,10.0,94,0.00,,,0.11,Wunderground v.1.15,2013-02-05 03:03:00,
2013-02-04 22:04:00,42.0,40.4,30.01,West,269,6.0,10.0,94,0.00,,,0.11,Wunderground v.1.15,2013-02-05 03:04:00,
2013-02-04 22:05:00,42.0,40.4,30.01,WNW,300,7.0,10.0,94,0.00,,,0.11,Wunderground v.1.15,2013-02-05 03:05:00,
2013-02-04 22:09:00,41.9,40.3,30.01,WSW,251,5.0,10.0,94,0.00,,,0.11,Wunderground v.1.15,2013-02-05 03:09:00,
2013-02-04 22:10:00,41.9,40.3,30.01,WNW,298,5.0,10.0,94,0.00,,,0.11,Wunderground v.1.15,2013-02-05 03:10:00,
2013-02-04 22:11:00,41.9,40.3,30.01,WNW,282,5.0,5.0,94,0.00,,,0.11,Wunderground v.1.15,2013-02-05 03:11:00,
2013-02-04 22:16:00,42.0,40.4,30.01,SW,236,6.0,9.0,94,0.00,,,0.11,Wunderground v.1.15,2013-02-05 03:16:00,
2013-02-04 22:18:00,42.2,40.6,30.01,WNW,294,6.0,9.0,94,0.00,,,0.11,Wunderground v.1.15,2013-02-05 03:18:00,
2013-02-04 22:19:00,42.2,40.6,30.01,WNW,292,6.0,9.0,94,0.00,,,0.11,Wunderground v.1.15,2013-02-05 03:19:00,
2013-02-04 22:23:00,42.2,40.6,30.01,West,281,6.0,9.0,94,0.00,,,0.11,Wunderground v.1.15,2013-02-05 03:23:00,
2013-02-04 22:24:00,42.2,40.6,30.01,West,272,6.0,9.0,94,0.00,,,0.11,Wunderground v.1.15,2013-02-05 03:24:00,
2013-02-04 22:25:00,42.2,40.6,30.01,West,265,5.0,9.0,94,0.00,,,0.11,Wunderground v.1.15,2013-02-05 03:25:00,
2013-02-04 22:28:00,42.2,40.6,30.01,NW,311,5.0,9.0,94,0.00,,,0.11,Wunderground v.1.15,2013-02-05 03:28:00,
2013-02-04 22:31:00,42.3,40.7,30.01,WNW,284,5.0,9.0,94,0.00,,,0.11,Wunderground v.1.15,2013-02-05 03:31:00,
2013-02-04 22:34:00,42.3,40.7,30.01,WNW,299,5.0,10.0,94,0.00,,,0.11,Wunderground v.1.15,2013-02-05 03:34:00,
2013-02-04 22:36:00,42.4,40.8,30.01,NW,312,6.0,10.0,94,0.00,,,0.11,Wunderground v.1.15,2013-02-05 03:36:00,
2013-02-04 22:37:00,42.5,40.9,30.01,NW,306,6.0,10.0,94,0.00,,,0.11,Wunderground v.1.15,2013-02-05 03:37:00,
2013-02-04 22:38:00,42.5,40.9,30.01,WNW,289,6.0,10.0,94,0.00,,,0.11,Wunderground v.1.15,2013-02-05 03:38:00,
2013-02-04 22:41:00,42.7,41.1,30.01,WNW,284,6.0,6.0,94,0.00,,,0.11,Wunderground v.1.15,2013-02-05 03:41:00,
2013-02-04 22:43:00,42.7,41.1,30.01,WNW,295,6.0,9.0,94,0.00,,,0.11,Wunderground v.1.15,2013-02-05 03:43:00,
2013-02-04 22:46:00,42.7,41.1,30.01,NW,306,6.0,9.0,94,0.00,,,0.11,Wunderground v.1.15,2013-02-05 03:46:00,
2013-02-04 22:49:00,42.8,41.2,30.01,WNW,295,6.0,9.0,94,0.00,,,0.11,Wunderground v.1.15,2013-02-05 03:49:00,
2013-02-04 22:51:00,42.9,41.3,30.01,WNW,288,6.0,9.0,94,0.00,,,0.11,Wunderground v.1.15,2013-02-05 03:51:00,
2013-02-04 22:52:00,42.9,41.3,30.01,NW,305,6.0,9.0,94,0.00,,,0.11,Wunderground v.1.15,2013-02-05 03:52:00,
2013-02-04 22:54:00,43.0,41.1,30.01,NW,305,6.0,9.0,93,0.00,,,0.11,Wunderground v.1.15,2013-02-05 03:54:00,
2013-02-04 22:56:00,43.1,41.2,30.01,WNW,303,7.0,10.0,93,0.00,,,0.11,Wunderground v.1.15,2013-02-05 03:56:00,
2013-02-04 22:58:00,43.2,41.3,30.01,WNW,298,7.0,10.0,93,0.00,,,0.11,Wunderground v.1.15,2013-02-05 03:58:00,
2013-02-04 23:01:00,43.3,41.4,30.01,NW,313,7.0,7.0,93,0.00,,,0.11,Wunderground v.1.15,2013-02-05 04:01:00,
2013-02-04 23:02:00,43.2,41.3,30.01,WNW,294,7.0,9.0,93,0.00,,,0.11,Wunderground v.1.15,2013-02-05 04:02:00,
2013-02-04 23:04:00,43.2,41.3,30.01,NW,308,6.0,9.0,93,0.00,,,0.11,Wunderground v.1.15,2013-02-05 04:04:00,
2013-02-04 23:06:00,43.3,41.4,30.01,WNW,298,6.0,9.0,93,0.00,,,0.11,Wunderground v.1.15,2013-02-05 04:06:00,
2013-02-04 23:07:00,43.3,41.4,30.01,WNW,290,6.0,10.0,93,0.00,,,0.11,Wunderground v.1.15,2013-02-05 04:07:00,
2013-02-04 23:08:00,43.3,41.4,30.01,WNW,296,6.0,10.0,93,0.00,,,0.11,Wunderground v.1.15,2013-02-05 04:08:00,
2013-02-04 23:10:00,43.3,41.4,30.01,WNW,300,6.0,10.0,93,0.00,,,0.11,Wunderground v.1.15,2013-02-05 04:10:00,
2013-02-04 23:12:00,43.3,41.4,30.01,WNW,293,6.0,9.0,93,0.00,,,0.11,Wunderground v.1.15,2013-02-05 04:12:00,
2013-02-04 23:13:00,43.3,41.4,30.01,NW,311,6.0,9.0,93,0.00,,,0.11,Wunderground v.1.15,2013-02-05 04:13:00,
2013-02-04 23:15:00,43.2,41.3,30.01,NW,309,6.0,9.0,93,0.00,,,0.11,Wunderground v.1.15,2013-02-05 04:15:00,
2013-02-04 23:16:00,43.3,41.4,30.01,WNW,300,6.0,9.0,93,0.00,,,0.11,Wunderground v.1.15,2013-02-05 04:16:00,
2013-02-04 23:18:00,43.2,41.3,30.01,WNW,300,6.0,9.0,93,0.00,,,0.11,Wunderground v.1.15,2013-02-05 04:18:00,
2013-02-04 23:19:00,43.2,41.3,30.01,WNW,302,6.0,9.0,93,0.00,,,0.11,Wunderground v.1.15,2013-02-05 04:19:00,
2013-02-04 23:21:00,43.1,41.2,30.01,WNW,294,5.0,5.0,93,0.00,,,0.11,Wunderground v.1.15,2013-02-05 04:21:00,
2013-02-04 23:24:00,43.1,41.2,30.01,WNW,289,4.0,9.0,93,0.00,,,0.11,Wunderground v.1.15,2013-02-05 04:24:00,
2013-02-04 23:25:00,43.0,41.1,30.01,NW,311,4.0,9.0,93,0.00,,,0.11,Wunderground v.1.15,2013-02-05 04:25:00,
2013-02-04 23:28:00,43.0,41.4,30.01,WNW,283,4.0,9.0,94,0.00,,,0.11,Wunderground v.1.15,2013-02-05 04:28:00,
2013-02-04 23:29:00,43.0,41.1,30.01,NW,306,4.0,9.0,93,0.00,,,0.11,Wunderground v.1.15,2013-02-05 04:29:00,
2013-02-04 23:31:00,43.0,41.4,30.01,NW,306,3.0,9.0,94,0.00,,,0.11,Wunderground v.1.15,2013-02-05 04:31:00,
2013-02-04 23:33:00,42.9,41.3,30.01,WNW,286,3.0,9.0,94,0.00,,,0.11,Wunderground v.1.15,2013-02-05 04:33:00,
2013-02-04 23:34:00,42.9,41.3,30.01,WNW,292,3.0,9.0,94,0.00,,,0.11,Wunderground v.1.15,2013-02-05 04:34:00,
2013-02-04 23:36:00,42.9,41.3,30.01,West,281,3.0,9.0,94,0.00,,,0.11,Wunderground v.1.15,2013-02-05 04:36:00,
2013-02-04 23:37:00,42.9,41.3,30.01,WNW,302,3.0,9.0,94,0.00,,,0.11,Wunderground v.1.15,2013-02-05 04:37:00,
2013-02-04 23:39:00,42.9,41.3,30.01,NW,304,3.0,9.0,94,0.00,,,0.11,Wunderground v.1.15,2013-02-05 04:39:00,
2013-02-04 23:40:00,42.9,41.3,30.00,WNW,297,3.0,9.0,94,0.00,,,0.11,Wunderground v.1.15,2013-02-05 04:40:00,
2013-02-04 23:41:00,42.9,41.3,30.01,WNW,290,2.0,2.0,94,0.00,,,0.11,Wunderground v.1.15,2013-02-05 04:41:00,
2013-02-04 23:44:00,42.8,41.2,30.01,WNW,286,2.0,9.0,94,0.00,,,0.11,Wunderground v.1.15,2013-02-05 04:44:00,
2013-02-04 23:46:00,42.8,41.2,30.01,WNW,300,2.0,9.0,94,0.00,,,0.11,Wunderground v.1.15,2013-02-05 04:46:00,
2013-02-04 23:47:00,42.7,41.1,30.01,WNW,295,2.0,9.0,94,0.00,,,0.11,Wunderground v.1.15,2013-02-05 04:47:00,
2013-02-04 23:49:00,42.7,41.1,30.01,WNW,288,1.0,9.0,94,0.00,,,0.11,Wunderground v.1.15,2013-02-05 04:49:00,
2013-02-04 23:50:00,42.7,41.1,30.01,WNW,289,1.0,9.0,94,0.00,,,0.11,Wunderground v.1.15,2013-02-05 04:50:00,
2013-02-04 23:52:00,42.7,41.1,30.01,WNW,303,1.0,9.0,94,0.00,,,0.11,Wunderground v.1.15,2013-02-05 04:52:00,
2013-02-04 23:56:00,42.7,41.1,30.01,WNW,300,1.0,9.0,94,0.00,,,0.11,Wunderground v.1.15,2013-02-05 04:56:00,
2013-02-04 23:58:00,42.8,41.2,30.01,WNW,296,2.0,9.0,94,0.00,,,0.11,Wunderground v.1.15,2013-02-05 04:58:00,
2013-02-04 23:59:00,42.8,41.2,30.01,WNW,289,1.0,9.0,94,0.00,,,0.11,Wunderground v.1.15,2013-02-05 04:59:00,